GFSSW_sfc_temp_066.txt.gz
Temp
59 60 60 60 59 59 59 58 58 58 58 59 59 59 59 58 57 57 53 60 59 65 66 67 66 65 63 57 59 58 44 40 45 51 58 67 65 72 73 71 70 72 68 71 71
59 59 59 59 59 58 58 58 57 58 58 58 58 58 58 58 53 51 62 66 66 67 64 63 62 63 54 54 56 52 45 48 57 60 60 65 64 68 70 67 67 65 68 71 70
59 59 59 59 58 58 58 57 57 57 58 58 58 58 58 57 51 58 69 66 67 67 64 65 65 62 54 55 54 52 51 58 60 65 63 64 66 69 67 64 68 64 65 68 68
58 58 58 58 58 58 57 56 57 57 57 58 58 58 58 52 46 63 69 68 68 65 64 62 59 55 53 52 58 51 59 61 63 67 65 64 69 65 66 69 72 69 69 68 67
57 57 57 57 57 57 56 56 56 56 57 57 58 58 53 45 47 63 68 69 67 66 64 62 58 55 52 55 57 55 59 64 66 67 68 68 65 66 66 71 70 70 70 68 67
57 57 56 56 56 56 56 56 56 56 56 57 57 58 48 38 60 65 66 65 66 64 64 63 61 61 57 57 55 61 61 63 66 67 66 64 65 62 68 70 68 69 67 67 66
57 56 56 56 56 56 56 55 55 55 56 56 57 56 48 45 60 60 62 60 64 66 61 64 63 58 58 55 61 61 55 60 62 63 61 64 60 60 71 69 68 67 68 66 67
56 56 55 55 55 55 55 55 55 55 56 57 57 53 43 62 59 59 59 62 65 67 66 65 64 59 57 60 59 54 53 46 59 63 65 61 53 67 70 67 66 64 66 67 67
56 55 55 55 54 54 54 54 55 56 58 57 51 48 45 65 58 63 62 60 64 64 63 72 62 54 56 48 45 47 40 46 55 65 63 60 57 67 69 67 65 64 65 65 65
56 56 55 54 54 54 54 54 54 56 59 59 58 46 52 56 63 66 64 65 60 59 58 55 52 46 45 43 36 40 43 47 50 56 60 57 59 67 70 64 66 63 64 65 65
55 55 55 54 54 54 52 46 50 48 52 48 50 50 55 62 65 62 65 61 58 53 45 49 42 39 43 48 51 51 49 46 52 58 55 55 57 61 67 63 61 60 61 64 65
55 55 54 54 54 54 49 47 52 53 41 53 53 52 57 59 51 58 63 54 50 43 45 43 38 48 51 52 51 50 48 46 53 59 57 56 55 62 65 65 65 64 60 64 63
54 54 54 53 53 49 45 49 58 54 39 46 54 53 54 56 49 52 58 54 49 43 43 40 46 54 51 49 48 48 47 48 48 55 60 55 52 58 63 65 64 65 66 65 65
54 54 53 53 47 45 44 54 54 52 33 41 50 56 59 59 49 61 61 55 49 44 44 42 49 47 46 45 50 42 55 54 53 50 39 56 38 54 58 60 63 64 61 61 66
53 53 53 53 43 40 49 52 54 48 22 52 55 67 62 54 54 55 60 54 46 46 45 41 43 44 42 46 53 48 55 50 49 43 41 49 42 51 55 56 60 62 62 63 67
53 53 53 47 43 47 49 50 47 32 23 47 55 53 50 53 53 55 54 56 54 47 46 46 50 49 47 52 54 53 50 49 49 44 32 46 44 43 48 58 61 65 64 64 67
52 53 50 49 38 47 46 42 29 23 47 47 48 52 50 48 50 50 47 44 39 35 35 42 45 49 52 45 51 49 42 35 34 32 31 50 45 48 57 61 64 64 66 65 67
52 51 48 49 45 43 42 34 22 37 40 52 49 51 47 51 50 48 44 39 43 41 36 33 32 45 51 46 43 45 41 33 28 28 35 51 40 48 62 67 67 68 65 64 66
50 40 40 42 45 42 37 20 28 36 45 42 44 43 43 50 49 47 43 42 45 45 36 35 38 49 52 54 50 41 36 46 35 40 32 41 48 58 59 62 65 64 62 62 64
38 36 37 48 44 44 32 27 33 43 44 43 34 43 37 41 42 44 44 47 46 49 49 43 35 49 52 55 54 49 50 34 36 28 27 39 42 44 52 55 60 58 58 60 64
36 31 41 48 47 37 26 28 36 44 45 41 37 37 41 40 41 43 44 46 49 47 50 43 40 40 48 46 43 45 38 38 40 38 30 31 38 51 52 56 57 57 59 59 60
34 24 44 46 31 33 29 35 41 40 45 42 44 41 40 42 40 40 43 46 51 51 43 45 40 32 41 52 56 49 43 43 34 34 38 35 35 52 55 57 59 59 59 59 61
34 31 41 40 26 26 33 36 38 38 39 40 41 44 43 39 36 43 44 50 51 47 42 43 37 30 36 45 51 45 48 47 44 40 34 32 37 52 56 54 56 58 58 59 59
35 24 29 33 33 32 30 31 33 43 40 42 41 43 40 39 42 39 43 49 50 49 49 47 38 35 31 35 40 38 44 46 41 34 35 35 42 47 48 48 54 54 58 59 58
33 26 31 26 30 31 33 32 31 31 40 41 39 40 39 34 37 36 42 44 48 49 45 41 32 36 39 42 43 44 40 41 41 40 36 41 43 49 48 48 52 56 58 58 56
31 24 31 29 35 33 31 29 31 34 37 36 34 36 37 36 41 36 40 40 38 44 41 41 32 35 34 42 43 40 43 43 39 42 45 45 44 52 49 50 52 55 57 54 53
38 36 32 29 28 28 30 34 32 37 38 41 38 34 34 38 40 41 42 43 42 40 37 38 35 31 28 38 38 32 41 45 46 46 44 38 47 50 47 48 50 54 53 52 52

GFSSW_sfc_temp_072.txt.gz
Temp
59 59 59 59 58 58 58 58 57 57 57 58 58 58 58 58 57 51 45 56 54 62 64 59 59 59 58 54 55 50 40 34 41 45 50 57 53 60 62 62 63 65 65 65 67
58 59 59 58 58 58 58 57 57 57 57 57 57 58 58 58 50 45 56 63 63 65 59 58 54 56 50 49 51 49 38 43 49 52 52 54 54 58 60 59 61 62 65 65 65
58 58 58 58 58 58 57 56 56 57 57 57 57 57 57 55 45 55 67 64 65 64 59 60 60 56 47 47 49 45 44 49 52 56 54 52 56 59 56 56 60 63 66 62 63
57 57 57 57 57 57 57 56 56 56 57 57 57 57 58 49 45 56 66 66 67 62 60 58 55 50 46 45 50 44 50 53 53 57 54 54 55 56 58 62 66 66 66 62 61
57 57 57 57 57 56 56 56 56 56 56 56 57 57 52 43 46 59 65 63 60 60 58 56 53 51 46 47 48 47 49 54 56 57 56 58 54 57 56 63 64 65 65 61 63
56 56 56 56 56 56 56 55 55 55 55 56 57 57 47 39 59 61 59 58 61 58 59 58 55 56 51 50 48 52 52 54 56 57 58 57 58 54 61 62 63 64 63 61 63
56 56 56 56 56 55 55 55 55 55 55 56 57 55 47 45 59 58 58 56 59 60 58 60 60 54 53 49 55 54 47 52 53 53 53 56 50 51 62 61 61 61 62 61 64
56 56 55 55 55 54 54 54 54 55 56 57 57 53 44 61 58 57 56 57 59 60 60 62 61 56 52 55 53 48 46 40 51 53 56 56 47 56 61 59 59 59 60 63 64
55 55 55 54 54 54 54 54 54 56 57 57 51 48 42 63 56 62 60 59 61 61 60 68 59 52 51 45 40 41 37 40 45 55 55 52 48 54 59 61 59 59 58 60 64
55 55 55 54 54 54 53 54 54 55 55 57 55 43 52 55 61 62 61 61 59 58 56 55 50 45 43 41 32 35 37 36 38 47 48 47 47 53 57 57 57 57 57 58 63
54 54 54 54 54 53 51 49 42 42 44 43 46 47 52 60 62 59 61 59 57 53 45 48 41 38 41 42 45 43 40 39 41 51 48 47 47 52 56 54 54 56 55 60 63
54 54 54 54 53 53 48 45 44 43 34 46 47 48 54 56 47 55 59 51 50 43 44 42 37 45 46 46 43 42 39 38 45 51 50 46 45 51 55 54 58 58 59 58 63
53 53 53 52 52 46 41 44 50 47 35 43 50 50 52 53 46 49 54 52 48 42 42 38 43 49 46 43 41 41 38 38 40 47 49 45 45 50 56 55 58 60 61 60 60
53 53 52 52 44 40 41 48 47 45 30 38 46 50 53 53 43 55 57 53 48 42 42 41 46 45 42 40 42 35 46 45 44 41 32 45 32 44 49 52 56 59 58 57 60
52 52 52 51 39 38 45 46 48 42 22 46 49 60 54 47 52 50 57 53 44 43 43 40 41 40 39 41 46 40 48 45 45 38 36 37 36 41 48 48 53 58 60 60 58
52 52 52 44 38 40 42 43 42 28 23 40 50 48 47 50 50 51 50 54 51 45 43 42 47 44 43 47 47 49 44 45 43 38 29 38 37 37 42 50 55 59 62 63 60
51 51 48 46 36 41 40 39 26 21 40 38 40 45 43 44 47 47 43 41 37 33 33 38 41 44 47 40 45 43 40 29 28 28 27 41 36 42 51 56 55 55 58 62 64
51 50 44 44 40 40 37 31 21 32 33 42 40 41 38 44 44 44 40 36 41 38 33 31 31 39 45 43 38 38 40 29 25 25 29 41 32 42 52 54 55 54 54 58 60
48 37 36 39 40 38 31 16 27 29 37 34 37 34 36 40 39 41 38 37 41 43 34 31 33 43 45 46 45 39 35 42 34 35 30 35 42 49 51 50 52 51 52 51 58
36 33 34 41 40 36 24 25 28 37 38 37 29 36 30 35 36 35 37 42 41 44 45 39 32 42 44 46 44 42 44 33 34 27 26 35 36 35 42 44 48 48 48 50 57
33 29 38 41 40 29 15 25 31 39 39 33 32 31 33 34 36 35 38 41 44 44 44 40 38 37 42 39 36 39 37 36 37 36 29 29 33 46 44 47 46 47 49 50 54
30 19 38 40 25 25 19 30 38 35 39 36 36 34 32 35 33 35 36 41 47 46 39 43 37 30 35 45 47 43 38 38 32 32 35 34 34 50 50 51 51 49 50 50 51
30 30 37 35 11 18 30 31 35 33 34 34 34 36 39 33 28 34 38 44 46 45 41 43 34 30 34 38 43 39 41 41 38 35 33 30 34 51 52 50 51 50 49 49 49
29 20 27 30 29 23 22 26 29 36 33 36 34 36 33 31 38 32 33 41 45 44 47 45 36 33 29 32 38 35 40 42 36 32 32 33 39 44 46 46 49 50 49 48 48
32 25 28 15 24 29 29 30 27 28 33 36 32 32 31 28 31 30 37 37 43 45 41 40 33 34 35 37 38 37 37 40 38 36 33 37 38 45 46 47 48 51 50 48 46
30 27 31 28 30 27 28 28 28 29 32 30 28 31 33 29 32 30 34 36 34 43 39 39 31 32 32 36 36 35 38 38 40 41 40 40 39 50 49 49 48 48 48 46 44
37 37 30 29 28 25 26 30 29 32 34 37 36 32 30 33 36 37 40 39 37 37 35 36 32 30 29 32 32 30 35 38 40 43 41 35 43 47 45 47 47 46 46 43 43

GFSSW_sfc_temp_075.txt.gz
Temp
59 59 59 59 58 58 58 58 57 57 57 58 58 58 58 58 57 54 49 61 58 63 64 65 66 66 66 63 63 61 55 50 51 53 59 65 64 69 72 70 70 75 74 74 74
58 58 59 58 58 58 58 57 57 57 57 57 57 57 57 57 52 49 59 62 63 64 63 63 60 63 60 60 61 59 52 54 57 61 60 65 63 66 66 66 69 71 74 70 71
58 58 58 58 58 58 57 57 56 57 57 57 57 57 57 57 47 58 65 63 64 65 64 66 64 62 57 58 58 56 52 56 58 62 63 63 64 67 66 62 68 68 73 72 70
57 57 57 58 57 57 57 56 56 56 56 56 57 57 58 53 49 62 65 65 66 65 64 62 61 56 54 54 58 51 55 58 61 64 62 60 65 63 65 66 73 73 74 74 73
57 57 57 57 57 57 56 56 56 56 56 56 56 57 54 46 50 63 64 64 65 63 61 60 58 55 52 54 54 52 55 59 61 61 62 64 61 62 65 70 73 72 72 72 72
57 56 56 56 56 56 56 56 55 55 55 56 56 56 49 39 63 63 61 62 65 61 62 61 60 60 56 55 54 57 57 58 60 61 62 59 61 61 65 70 69 70 72 74 72
56 56 56 56 56 55 55 55 55 55 56 56 57 55 48 47 62 62 60 61 64 63 60 63 64 60 59 54 59 57 52 57 57 59 59 62 55 56 66 70 68 70 72 74 73
56 55 55 55 54 54 54 54 54 55 56 57 57 54 45 61 62 59 59 59 61 62 63 66 66 62 58 60 57 53 53 47 56 57 60 60 51 63 67 66 67 70 70 70 73
55 55 54 54 54 54 54 54 54 56 57 57 52 50 43 63 57 64 63 60 61 61 61 68 63 58 56 50 47 47 43 45 50 61 60 57 54 64 66 65 66 68 70 71 72
54 54 54 54 54 53 53 53 55 56 56 57 56 44 52 55 62 64 64 62 61 59 58 58 55 49 47 47 38 41 42 45 45 55 57 55 54 60 64 65 64 67 69 69 70
54 54 54 54 53 53 50 50 45 46 45 45 48 47 52 59 63 61 64 61 61 57 48 52 47 42 45 46 49 48 45 44 49 55 52 52 53 57 62 63 63 66 67 69 69
53 53 53 53 53 52 49 43 42 43 34 47 45 46 52 56 47 55 62 54 52 46 49 46 41 49 50 49 46 46 43 43 48 53 52 52 52 58 61 62 64 67 68 68 70
53 53 52 52 52 46 44 44 50 47 35 42 50 49 52 52 45 48 55 54 50 45 45 43 46 50 48 46 43 44 41 42 42 49 52 50 48 53 60 63 65 66 69 70 69
52 52 52 51 46 43 43 48 47 45 33 42 48 52 53 53 44 56 57 55 49 45 46 44 49 47 46 44 45 38 48 46 45 43 37 51 38 50 56 59 62 65 67 68 70
52 52 52 50 42 41 47 46 47 44 27 47 49 61 54 49 53 52 59 55 46 45 46 43 43 42 42 45 48 43 49 46 46 44 42 43 40 47 55 53 60 64 66 68 69
52 52 52 45 42 44 44 43 45 34 27 41 50 48 48 51 52 53 54 57 55 47 46 46 51 48 48 49 50 51 46 47 47 43 33 42 42 44 49 55 59 63 64 65 68
51 51 49 47 40 43 42 43 33 28 42 37 39 43 42 43 48 49 47 45 42 36 37 43 44 49 50 45 49 47 42 34 31 31 33 46 41 45 54 57 55 56 59 61 63
51 48 44 45 42 42 41 37 27 33 33 41 39 40 40 44 44 45 43 41 45 43 38 36 35 43 48 46 42 42 42 34 27 29 35 44 38 47 52 56 57 57 57 59 61
48 39 40 42 43 42 36 23 29 30 35 34 38 35 36 41 40 42 42 41 44 46 39 36 37 47 47 49 50 41 37 45 34 37 31 42 48 51 54 53 53 53 54 56 59
38 36 38 41 43 39 28 28 30 37 37 36 29 35 31 34 36 38 39 45 43 46 49 44 36 46 45 50 48 45 46 34 35 27 28 38 41 40 45 47 50 49 49 52 58
36 33 41 42 42 31 21 27 32 39 39 33 31 30 32 32 36 36 39 43 43 45 47 46 41 40 45 43 41 41 40 37 36 37 31 30 35 46 45 47 47 47 47 48 50
33 24 40 41 29 27 26 31 37 36 40 36 36 34 33 34 33 35 36 41 45 44 41 44 39 34 40 48 50 47 43 40 32 32 35 35 36 47 48 49 48 46 47 47 48
30 31 40 38 20 24 31 31 34 33 34 34 33 37 38 33 29 34 37 44 44 41 38 43 35 30 34 41 45 41 42 39 38 35 32 32 36 49 49 49 48 45 44 45 46
29 21 31 34 32 27 24 27 29 37 33 33 33 37 33 32 36 33 35 41 42 40 43 44 39 32 31 35 40 36 42 43 37 30 31 34 39 45 44 45 47 47 45 44 43
30 25 31 22 29 30 29 30 28 27 33 36 31 30 29 27 32 32 37 40 42 41 39 38 33 35 39 40 40 39 40 42 39 39 33 40 39 44 47 47 46 48 47 43 42
29 28 33 30 31 30 29 29 28 30 32 30 28 33 32 28 31 29 33 36 36 39 36 38 34 36 35 39 39 37 42 42 41 42 42 42 41 52 53 51 46 45 46 43 41
36 37 32 30 29 28 29 30 29 32 34 36 35 31 31 32 36 36 38 37 37 35 34 35 34 35 31 36 37 34 39 41 42 45 45 39 46 50 47 48 46 45 45 42 41

GFSSW_sfc_temp_078.txt.gz
Temp
59 59 59 59 58 59 58 58 57 57 58 58 58 58 58 58 58 65 62 68 67 64 64 75 75 76 78 76 76 77 64 62 67 64 68 76 73 81 83 79 81 83 83 84 85
58 58 59 58 58 58 58 57 57 57 57 57 57 57 58 57 59 61 69 64 63 63 72 72 71 74 71 72 72 68 64 65 74 72 69 75 74 77 74 75 76 80 85 82 83
58 58 58 58 58 58 57 57 57 57 57 57 57 57 57 59 57 67 65 64 63 66 74 76 75 72 68 71 69 68 63 72 70 71 73 71 72 77 74 70 75 75 80 83 84
57 57 57 58 58 57 57 56 56 57 57 57 57 57 58 61 56 71 66 65 66 74 73 72 71 66 65 63 70 60 67 68 72 72 71 69 74 72 74 74 79 81 83 83 83
57 57 57 57 57 57 56 56 56 56 56 56 57 57 59 56 61 72 65 68 74 72 71 70 67 67 62 65 67 61 66 70 70 70 70 72 69 70 72 78 82 82 81 80 82
57 56 56 56 56 56 56 56 55 55 56 56 57 57 57 50 72 72 70 71 74 72 71 71 68 70 65 64 61 65 65 67 68 68 69 65 68 71 73 79 78 79 79 81 83
56 56 56 56 56 55 55 55 55 55 56 57 57 58 55 58 71 73 71 71 73 74 70 73 72 67 66 61 67 64 58 64 66 68 66 70 64 66 75 78 76 78 79 82 84
56 55 55 55 54 54 54 54 54 55 56 58 58 58 54 69 74 69 73 71 73 73 72 74 74 68 64 67 61 57 59 53 65 65 67 66 57 71 77 75 75 77 79 81 84
55 55 54 54 54 54 54 54 55 57 57 58 58 56 55 67 65 72 72 67 69 70 70 72 68 64 62 55 53 55 49 53 58 67 65 63 60 69 74 73 72 76 79 81 83
54 54 54 54 54 53 53 54 56 57 60 62 58 47 60 61 67 69 73 70 67 65 62 62 63 56 55 51 43 50 51 54 52 59 60 59 61 68 72 73 72 75 77 79 81
54 54 54 54 54 53 57 64 61 57 57 56 56 55 59 68 70 67 70 67 67 64 56 60 53 49 51 55 57 54 48 48 54 60 56 56 60 66 70 71 71 73 75 77 80
53 53 53 53 53 53 61 53 49 50 45 55 54 54 59 61 52 62 69 60 59 53 58 53 48 58 58 56 52 52 49 48 54 58 57 58 59 66 68 70 72 73 74 77 80
53 53 53 52 52 56 55 51 56 54 45 52 57 56 58 58 53 56 62 62 57 54 53 50 55 56 55 52 49 51 49 50 50 54 58 57 57 63 68 69 71 74 76 78 79
52 52 52 51 52 55 53 56 57 54 48 51 54 58 59 59 52 62 63 62 56 51 54 52 57 52 51 50 52 46 54 51 50 49 48 58 46 59 64 66 68 71 74 77 79
52 52 52 50 54 56 54 58 56 50 37 53 55 67 62 55 59 58 64 60 52 52 52 49 50 48 47 50 54 49 53 51 51 49 49 51 48 58 62 60 65 71 74 77 80
52 52 52 54 56 55 56 55 53 45 35 47 55 52 55 57 58 59 58 61 61 54 54 53 59 54 54 54 55 55 51 53 53 50 39 50 49 56 59 60 65 69 72 74 77
51 51 52 55 50 55 54 54 45 39 50 43 44 49 50 50 53 55 53 51 50 44 45 50 52 56 55 49 54 52 47 40 39 36 39 52 49 54 63 62 63 64 68 71 73
51 48 49 54 54 54 54 49 36 40 40 46 44 48 46 49 51 51 51 49 54 52 47 44 41 49 54 51 48 48 47 40 32 37 44 52 44 56 60 63 64 66 67 70 72
48 54 54 52 54 54 50 38 39 38 40 39 45 42 45 46 47 49 50 50 52 54 45 44 44 53 54 54 54 47 42 52 41 44 38 48 55 59 62 61 63 62 62 61 66
52 53 50 52 54 53 47 36 38 42 42 42 35 40 37 40 42 44 46 50 47 52 57 50 41 52 52 55 54 51 54 37 40 31 34 47 49 49 51 54 58 57 55 54 56
51 48 51 53 53 50 36 36 38 43 43 38 37 36 39 38 40 41 43 47 50 49 54 53 48 46 50 47 48 46 44 43 38 41 37 38 38 44 45 48 48 52 50 48 49
47 37 51 52 41 43 38 38 38 40 44 41 41 39 38 39 38 39 40 46 50 50 42 51 45 41 47 56 57 55 49 47 38 36 38 35 42 49 48 47 47 47 46 47 47
44 44 52 48 31 36 38 37 39 38 39 39 38 41 43 38 33 40 42 51 48 43 37 39 39 36 41 46 52 48 49 41 38 36 35 33 40 47 47 47 47 45 44 44 44
42 32 45 47 46 36 31 33 35 41 37 39 38 40 37 37 41 37 40 46 48 48 42 38 40 41 38 33 47 42 47 49 44 36 40 40 42 45 46 45 45 46 43 42 41
41 35 40 31 36 38 37 35 32 29 38 41 32 32 30 29 36 36 41 44 48 46 42 36 35 42 42 39 43 45 46 47 44 45 38 46 48 53 55 52 49 50 44 41 39
34 40 44 40 38 36 34 35 33 35 36 35 31 38 39 32 33 30 36 39 39 43 39 36 34 42 38 40 45 43 47 48 48 48 48 49 48 58 58 55 49 47 43 40 38
40 42 44 35 37 37 36 35 34 37 39 41 39 37 37 37 40 43 44 43 41 36 33 33 33 38 33 43 43 38 45 47 47 51 49 43 50 57 53 49 48 45 45 40 37

GFSSW_sfc_temp_081.txt.gz
Temp
58 59 59 59 58 58 58 58 58 58 58 58 58 58 58 58 58 69 69 74 72 65 66 80 80 79 81 78 82 82 67 64 69 71 76 83 80 87 89 85 87 87 86 89 89
58 58 59 58 58 58 58 58 57 57 57 58 58 58 58 57 62 68 73 66 64 64 73 76 74 78 74 75 78 73 66 67 78 80 78 81 80 81 81 79 79 83 89 90 88
58 58 58 58 58 58 57 57 57 57 57 57 57 57 57 60 65 74 66 65 64 66 76 80 80 78 72 77 76 73 65 74 78 81 80 77 78 82 79 75 80 78 82 87 87
57 58 58 58 58 57 57 56 57 57 57 57 57 57 58 64 58 76 66 66 65 74 77 76 75 70 68 68 76 68 73 75 77 79 77 73 78 76 78 78 85 85 85 87 86
57 57 57 57 57 57 56 56 56 56 56 57 57 57 62 62 67 75 67 69 76 74 74 74 71 71 66 71 73 70 72 75 76 77 75 76 73 73 76 82 85 85 85 84 85
57 57 57 57 57 56 56 56 56 56 56 56 57 57 59 56 79 79 78 77 78 77 76 77 74 76 71 69 69 72 72 72 74 74 74 70 71 74 76 82 81 82 83 85 85
56 56 55 56 55 55 55 55 55 55 56 56 57 62 61 64 80 81 77 76 80 79 74 78 78 72 71 66 73 70 63 68 70 72 69 72 66 69 78 80 79 80 82 84 86
56 55 55 55 55 55 55 54 55 55 57 58 59 64 59 77 81 77 79 76 79 80 77 79 79 72 69 72 67 62 63 57 69 72 72 70 58 73 81 79 78 80 81 83 85
55 55 55 54 54 54 54 54 55 57 58 58 61 62 61 68 70 77 78 73 77 76 76 77 74 67 67 59 54 58 50 58 62 72 68 68 62 74 79 77 77 79 81 82 83
55 54 54 54 54 53 53 54 56 57 60 68 66 56 65 66 72 74 79 75 71 71 68 67 66 61 61 57 47 53 56 59 59 65 65 63 63 69 74 75 75 77 78 80 83
54 54 54 54 54 53 56 65 60 59 62 62 63 61 66 73 75 72 76 72 71 67 58 64 57 54 57 60 58 58 55 54 60 64 61 59 62 66 71 72 72 75 76 79 82
53 53 53 53 53 53 60 63 57 55 54 64 62 62 66 67 59 67 76 64 64 58 63 60 53 62 64 62 58 55 52 50 58 64 60 60 61 67 70 71 74 75 76 78 81
53 53 53 53 53 56 60 57 64 61 53 60 64 62 64 65 61 63 69 66 62 58 59 55 61 61 59 58 54 55 52 53 53 61 64 60 58 63 70 71 74 77 79 81 81
52 52 52 51 50 63 60 62 64 60 49 54 59 63 66 65 58 69 69 66 61 56 59 58 64 60 58 54 57 50 60 57 54 53 48 64 47 61 67 70 73 75 76 78 80
52 52 52 52 58 62 60 63 62 56 39 57 60 72 69 60 64 63 70 64 56 57 56 53 57 55 52 54 59 53 60 55 54 50 51 54 51 58 68 65 70 74 76 78 80
52 52 52 58 60 61 63 61 57 46 38 51 60 57 59 62 62 65 63 66 67 59 60 57 66 60 58 60 59 60 54 54 55 51 41 51 53 56 64 64 68 73 76 79 81
51 51 53 60 57 61 60 58 47 42 55 49 51 54 55 56 58 59 58 56 53 48 50 57 57 62 59 54 58 55 49 40 42 41 40 57 52 57 66 66 66 67 71 74 77
50 49 51 61 61 60 58 52 39 48 48 53 51 53 50 57 55 58 55 54 61 57 52 48 45 57 60 55 53 53 50 40 33 36 40 53 47 54 66 69 69 71 70 70 70
49 56 57 58 59 59 53 42 45 46 47 45 50 48 50 53 50 52 53 54 59 60 49 48 49 60 60 60 58 51 46 55 44 47 41 48 57 64 64 63 66 65 66 64 64
56 55 56 57 59 55 50 41 45 48 47 47 40 46 42 48 45 50 49 56 54 57 60 53 45 57 58 60 59 55 56 40 44 32 34 47 50 43 51 55 57 56 56 56 55
53 51 55 59 58 55 41 44 44 49 48 43 42 42 43 42 45 44 46 53 54 53 56 55 51 50 57 52 51 51 47 48 46 44 36 36 39 48 47 50 49 52 53 49 47
53 42 56 58 49 51 46 45 40 45 48 45 45 43 41 43 42 42 42 48 56 53 43 48 44 43 50 60 63 58 52 49 38 40 44 42 41 49 51 49 49 51 49 46 45
52 50 58 54 36 43 43 43 45 44 44 44 42 45 46 42 37 43 45 53 55 52 39 39 41 37 43 51 58 53 55 54 48 43 39 35 39 48 52 54 52 49 48 44 42
50 37 49 55 53 42 38 39 40 45 43 44 43 44 42 40 45 40 42 49 52 52 45 44 37 37 36 40 44 42 52 52 48 38 41 43 48 48 54 53 52 50 48 42 40
48 40 48 36 43 44 43 41 38 36 43 46 36 37 35 34 38 39 43 44 48 51 49 43 35 40 45 50 48 42 40 50 46 47 41 48 50 56 58 57 53 51 46 41 38
36 47 48 47 44 41 37 39 39 40 41 40 34 42 44 38 41 36 40 41 40 47 42 41 34 40 34 46 47 42 45 51 51 51 51 52 52 59 57 58 54 48 45 40 38
51 52 49 41 43 42 42 40 39 41 44 46 44 41 40 43 48 48 48 47 46 42 39 36 35 33 29 43 43 34 44 49 52 54 53 45 51 56 50 52 49 44 43 40 37

GFSSW_sfc_temp_084.txt.gz
Temp
59 59 59 59 59 59 59 58 58 58 58 58 58 58 58 58 58 65 63 71 70 66 66 76 78 76 75 74 78 79 62 58 62 65 70 81 79 87 89 84 86 87 86 89 89
59 59 59 59 58 58 58 58 58 57 58 58 58 58 58 58 59 62 72 68 66 66 73 71 72 75 68 69 72 69 61 62 71 74 74 79 80 81 81 80 81 83 88 90 89
59 59 59 58 58 58 58 58 57 57 58 58 58 58 58 59 61 72 67 66 66 67 73 77 77 75 68 72 71 69 62 69 73 76 78 76 76 81 77 74 79 78 81 85 85
58 58 58 58 58 58 58 57 57 57 57 57 58 58 58 61 56 74 67 67 65 73 72 73 73 68 66 65 72 65 71 73 74 77 76 73 77 75 76 76 84 84 85 85 84
58 57 58 58 58 57 57 56 56 56 56 57 57 58 59 60 64 72 67 68 73 71 70 72 69 68 63 67 70 67 71 74 76 75 76 76 72 72 74 80 84 84 84 83 82
57 57 57 57 57 56 56 56 56 56 56 56 57 57 56 53 81 82 78 78 77 75 74 75 72 75 70 68 67 71 72 72 74 73 74 70 71 73 75 80 79 80 80 82 82
57 56 56 56 56 56 56 55 55 55 56 56 57 59 58 60 82 82 79 76 79 78 73 78 78 72 71 65 72 69 63 67 68 70 68 72 65 66 75 78 76 78 79 81 82
56 56 55 55 55 55 55 54 55 55 56 58 58 61 55 79 81 78 80 77 79 80 77 78 78 72 68 71 66 62 62 53 65 69 71 69 57 70 78 77 75 77 78 79 81
56 55 55 54 54 54 54 54 55 56 58 58 59 60 58 71 71 78 79 73 77 77 77 79 74 66 67 58 54 58 49 54 59 70 69 68 60 71 77 76 75 76 77 79 80
55 55 55 54 54 54 53 54 58 57 59 66 68 57 63 67 74 76 79 77 72 72 68 66 64 58 59 55 44 50 53 56 56 64 66 63 62 68 73 72 71 72 75 77 78
55 54 54 54 54 53 55 65 57 54 61 61 64 61 67 75 77 72 77 73 71 67 57 63 54 50 56 60 59 57 54 51 58 64 60 59 60 64 69 70 70 71 73 74 76
54 54 54 53 53 53 56 61 59 57 52 67 67 66 70 70 61 69 76 64 62 55 62 58 51 60 64 63 60 57 53 52 57 62 60 59 59 65 68 69 71 71 72 74 75
53 53 53 53 52 54 61 59 66 63 50 62 67 65 66 67 63 65 70 67 60 57 58 54 59 66 61 58 56 56 52 51 52 59 61 57 55 61 67 69 71 73 74 75 75
53 52 52 52 50 62 58 63 64 61 44 54 59 64 67 66 59 72 72 66 61 55 59 58 65 61 59 56 57 49 60 58 55 52 43 58 41 56 63 67 70 71 71 72 75
52 52 52 53 51 58 59 63 63 56 35 58 60 73 70 62 65 64 72 66 56 58 58 53 58 56 53 55 59 53 61 57 55 50 48 49 45 53 63 63 68 71 73 72 75
52 52 52 56 55 61 62 61 57 41 36 52 62 59 60 63 64 67 64 68 67 59 60 58 66 62 59 61 61 61 55 55 53 49 38 46 47 48 55 59 63 69 72 72 74
52 52 52 58 54 61 59 54 41 37 58 50 53 56 56 56 59 62 59 56 52 47 48 57 58 63 63 54 59 56 49 38 36 38 35 47 43 52 58 62 65 66 66 67 67
51 51 55 61 60 59 55 47 35 50 51 55 54 54 49 56 57 58 56 52 60 57 51 47 44 59 62 55 52 52 49 38 29 32 37 49 36 49 62 63 61 61 61 62 61
50 54 55 58 59 57 48 37 41 47 51 48 51 48 50 56 53 52 51 51 57 59 49 45 47 60 61 62 59 51 45 54 42 45 38 44 48 51 53 57 58 56 57 55 55
49 53 54 58 59 52 45 42 47 51 50 50 41 49 43 48 47 48 48 56 53 57 57 51 40 56 59 61 60 55 58 40 37 29 31 43 45 38 43 47 52 52 52 52 51
48 48 54 59 57 49 39 45 48 51 50 45 44 43 44 43 45 43 45 51 55 52 54 51 44 44 53 47 49 51 47 48 46 42 32 29 33 41 44 48 49 52 51 48 46
50 42 56 58 45 49 45 47 42 48 50 47 47 45 42 43 41 42 42 48 56 54 46 48 37 35 45 58 60 57 52 50 37 36 41 39 38 49 52 53 53 50 50 47 44
48 49 57 53 36 43 45 45 48 46 46 46 44 47 47 42 37 43 45 53 53 50 45 47 39 31 39 50 57 49 53 49 47 43 36 31 37 50 53 55 53 51 48 45 43
48 37 49 52 52 45 41 42 41 47 45 46 45 46 43 41 46 41 43 49 51 49 46 45 40 34 30 37 41 38 43 47 48 36 39 40 42 50 50 54 54 49 45 42 40
47 41 48 37 43 45 44 43 41 38 45 48 41 41 40 36 39 39 44 45 49 50 49 44 33 38 40 44 45 41 37 42 41 41 39 45 47 49 51 52 50 49 46 41 38
37 44 49 47 46 44 40 41 41 43 43 41 38 43 45 39 40 36 42 42 40 46 44 41 33 38 35 43 44 40 46 43 41 39 41 43 48 49 49 54 49 46 44 40 38
51 52 47 43 43 42 41 43 41 43 45 47 45 43 40 43 47 48 48 46 44 41 38 37 31 31 29 41 40 34 45 47 47 47 50 43 45 49 43 41 41 41 40 37 35

GFSSW_sfc_temp_087.txt.gz
Temp
60 59 59 59 59 59 59 58 58 58 58 58 58 58 58 58 57 56 52 60 62 67 66 68 68 67 63 59 61 64 50 48 52 56 60 72 70 76 76 75 76 77 78 77 79
60 59 60 59 59 58 58 58 58 58 58 58 58 58 58 58 52 51 63 67 67 66 66 64 61 65 55 56 57 54 50 52 61 64 63 69 69 70 71 70 72 72 77 78 79
60 59 59 59 58 58 58 57 57 57 57 57 58 58 57 57 51 63 66 66 66 65 65 66 67 65 57 59 56 54 52 60 64 68 69 67 68 69 65 65 68 68 73 75 75
59 59 58 58 58 58 57 57 57 57 57 57 57 58 57 54 48 60 66 66 66 66 65 64 62 56 54 53 62 53 62 63 65 69 68 66 68 67 66 67 72 73 72 75 73
58 58 58 58 58 57 57 56 56 57 57 57 57 57 53 50 54 67 67 67 66 66 63 63 60 59 54 57 60 58 61 65 67 67 66 68 66 66 64 70 72 75 76 71 71
57 57 57 57 57 57 56 56 56 56 56 56 57 57 49 44 70 69 68 68 69 66 65 66 64 66 61 60 57 62 62 62 63 62 63 63 62 62 67 69 71 72 73 74 73
57 57 57 56 56 56 56 55 55 55 56 56 57 56 51 51 71 68 73 70 70 69 65 70 69 63 62 57 64 62 54 58 59 60 61 64 58 60 68 69 69 71 73 73 75
57 56 56 55 55 55 55 55 55 55 56 56 58 54 45 69 66 67 70 69 71 72 69 70 70 63 59 62 59 52 52 44 54 60 63 58 50 63 69 68 68 71 73 73 74
56 56 55 55 55 54 54 55 55 56 57 58 52 50 49 70 66 72 71 68 70 70 68 75 65 56 57 48 42 46 39 44 51 61 60 58 53 62 67 68 65 64 64 67 73
54 55 55 54 54 54 53 54 55 55 57 62 60 47 57 62 71 72 70 72 67 65 62 60 53 47 46 41 33 39 41 42 43 51 56 52 52 60 63 64 64 64 68 69 69
54 54 54 54 54 54 51 52 47 46 53 50 53 55 62 68 71 67 71 67 65 59 48 54 43 38 44 48 51 50 47 45 49 55 53 52 52 56 62 64 65 64 67 68 70
54 54 54 54 53 53 50 48 54 51 42 58 57 61 67 67 58 65 69 58 56 47 53 49 42 51 56 55 53 50 46 44 49 55 54 51 50 54 60 62 63 65 67 68 71
53 53 53 53 53 50 51 55 60 56 41 54 61 60 64 65 59 61 64 59 55 50 50 45 51 59 56 54 51 49 46 46 47 52 54 50 48 51 59 62 66 69 70 70 69
52 53 52 52 46 52 51 58 58 54 37 50 56 62 65 64 56 69 68 60 54 49 51 49 57 56 54 52 53 44 53 53 51 46 37 48 34 48 55 58 64 65 68 68 70
52 52 52 53 44 47 54 57 57 49 29 54 58 71 68 59 61 61 69 60 51 51 51 47 51 50 49 51 55 48 55 51 48 44 40 44 37 44 54 53 60 55 61 66 66
52 52 52 50 47 52 55 54 50 35 30 51 58 56 56 59 60 61 60 61 60 53 53 51 58 54 52 57 56 56 51 48 46 42 32 42 38 39 47 52 55 55 56 56 56
51 51 50 53 46 54 52 46 34 30 56 48 50 56 54 53 55 56 53 49 44 38 40 49 51 57 59 49 53 49 41 29 28 28 29 47 40 42 47 51 53 53 53 53 53
51 51 50 53 53 52 47 39 30 46 46 55 52 52 47 52 51 52 49 44 50 48 42 39 36 51 58 52 46 44 42 29 24 26 32 46 36 41 44 53 55 55 54 52 50
50 45 46 49 53 48 39 30 34 43 48 46 49 43 45 51 49 48 46 44 48 47 36 37 39 53 58 57 53 45 39 48 37 39 32 39 45 48 49 49 50 52 51 47 46
42 44 46 51 52 45 36 37 42 49 49 49 40 46 40 42 42 41 43 50 46 51 50 43 33 49 53 56 54 50 51 32 33 26 26 37 37 35 41 46 48 48 46 45 44
40 39 47 53 49 39 30 38 45 50 49 43 42 40 41 40 41 39 41 46 48 47 48 46 37 37 46 44 43 44 42 42 40 36 27 26 31 41 42 46 46 46 46 42 42
40 33 48 50 36 38 35 45 45 47 50 47 46 44 41 41 39 39 39 44 48 46 38 42 36 29 35 47 51 48 44 43 32 32 35 33 33 46 47 48 49 46 45 42 41
37 38 48 47 30 31 42 44 47 46 45 45 43 45 44 39 34 41 41 48 48 44 37 39 32 24 31 41 44 39 41 39 38 39 32 29 33 47 48 50 48 42 41 40 39
37 31 39 41 42 38 36 39 39 46 43 46 44 44 40 38 41 37 39 46 48 46 47 43 34 29 23 29 38 31 37 41 37 31 32 33 39 46 48 45 43 41 40 39 38
38 34 40 29 33 38 40 41 39 37 44 45 37 38 36 30 34 33 39 41 45 47 43 38 27 32 35 38 39 38 35 40 35 35 31 37 39 42 44 43 42 43 41 38 37
33 33 40 38 41 38 37 37 41 41 42 38 35 40 39 33 35 31 36 36 35 40 37 35 26 30 28 35 37 36 40 42 42 40 40 38 36 45 45 46 43 41 39 36 35
42 43 38 39 36 33 34 40 41 42 43 45 42 38 36 37 39 40 40 40 39 35 32 31 24 27 24 34 34 29 37 41 42 44 41 34 39 44 37 36 36 37 36 34 33

GFSSW_sfc_temp_090.txt.gz
Temp
60 60 60 59 59 59 59 58 58 58 58 58 58 58 58 58 57 54 50 59 57 64 66 66 64 61 59 53 57 57 43 39 43 49 54 66 64 69 70 68 71 73 73 75 76
60 60 60 60 59 59 58 58 58 58 58 58 58 58 58 57 52 49 60 65 64 66 62 61 59 60 52 50 55 51 42 46 55 57 57 63 64 65 65 66 68 69 73 77 75
60 60 60 59 59 58 58 58 57 57 57 57 57 58 57 56 48 57 67 64 66 66 63 64 63 60 52 53 53 49 48 55 58 61 62 62 63 68 64 61 65 65 68 71 73
60 59 59 59 59 58 58 57 57 57 57 57 57 58 57 52 47 60 66 66 66 64 63 61 59 54 51 50 55 49 57 59 60 64 62 60 65 63 62 64 70 69 69 68 71
59 59 58 59 58 58 57 57 56 56 57 57 57 57 52 46 50 65 67 66 64 64 62 60 57 55 50 53 54 52 57 60 62 62 63 64 61 61 62 65 68 69 70 68 67
58 58 58 58 57 57 57 56 56 56 56 56 57 57 47 41 66 70 66 64 65 62 61 61 59 60 56 55 52 58 58 57 59 59 59 58 57 56 62 65 66 66 67 68 68
57 57 57 57 57 56 56 56 55 55 56 56 57 55 47 49 63 64 68 65 65 64 61 64 63 58 57 54 59 57 50 53 54 55 55 57 55 55 62 63 63 66 69 70 72
56 56 56 56 55 55 55 55 55 55 56 56 57 54 44 65 62 63 62 64 68 68 66 66 65 59 55 57 55 50 47 40 50 56 58 54 47 59 64 63 63 66 68 69 70
55 55 55 54 54 54 54 55 55 55 56 57 53 49 45 66 61 66 67 65 67 66 64 72 61 54 53 45 40 42 35 41 46 55 54 52 48 57 61 63 59 61 60 63 65
55 53 53 53 54 54 54 54 55 55 56 59 56 46 52 58 66 69 66 68 63 62 58 56 50 45 42 39 31 35 37 37 39 46 51 49 48 55 58 57 59 58 58 60 64
54 53 53 53 53 53 52 50 48 45 50 48 48 51 58 65 68 65 69 66 61 57 46 50 42 37 41 44 46 45 42 41 46 52 47 47 48 53 58 55 56 59 61 64 67
54 54 54 53 54 54 49 44 53 52 43 53 53 55 61 62 57 62 67 56 53 45 48 44 39 48 51 50 47 45 42 41 48 52 50 50 49 55 55 55 59 61 61 63 67
54 53 53 53 53 48 44 49 58 54 41 51 55 54 57 61 56 58 62 56 51 47 46 41 48 55 51 49 46 45 42 42 44 49 48 44 45 50 54 56 59 62 61 57 57
53 53 52 52 46 45 46 56 55 52 34 46 52 57 62 62 54 65 65 58 52 48 49 46 54 52 50 48 49 42 51 49 46 41 35 45 32 44 50 54 57 59 52 53 53
52 52 52 52 42 43 52 53 54 47 26 52 55 69 64 56 58 58 66 58 49 49 48 45 48 47 46 47 52 46 52 48 45 39 36 41 33 39 49 44 46 51 52 52 52
52 52 52 48 44 49 51 51 48 33 27 47 56 54 53 56 58 60 59 60 59 51 49 48 53 50 49 54 53 52 47 45 42 38 30 39 35 35 40 42 46 50 51 50 50
50 51 49 51 44 51 49 45 33 27 53 46 48 54 52 51 53 55 52 48 44 37 37 45 48 51 54 46 49 47 39 28 26 25 26 42 37 39 43 47 48 49 48 48 48
50 50 48 50 50 50 46 37 28 43 44 51 51 51 47 51 50 49 46 42 46 43 38 35 33 45 51 46 44 42 40 29 23 24 31 42 31 38 47 50 51 51 49 47 45
48 43 43 47 49 48 39 28 33 41 46 45 48 43 44 48 46 46 44 43 44 44 35 32 34 48 51 50 48 42 36 45 33 36 29 34 38 45 50 49 49 48 47 44 44
40 40 43 50 50 44 34 35 40 47 48 48 40 42 37 39 39 40 41 46 43 46 45 39 30 43 46 50 50 47 47 31 29 23 23 32 37 36 42 45 49 46 43 41 42
39 36 46 50 47 38 29 36 43 49 49 43 40 38 39 37 39 37 39 43 45 44 44 40 34 34 42 41 36 37 36 37 36 32 25 23 27 42 42 45 46 44 42 38 39
38 31 47 48 35 36 33 43 47 47 50 46 45 42 39 40 37 38 37 40 46 44 36 39 34 28 33 44 46 45 39 38 29 28 31 29 32 47 46 48 44 41 41 39 38
35 37 46 46 27 30 41 43 45 45 44 44 42 43 43 38 33 39 39 45 46 43 36 38 30 23 28 35 40 36 40 39 36 34 28 27 31 48 48 43 42 40 37 38 37
36 28 36 38 40 36 34 38 38 45 43 45 42 42 39 37 39 34 36 43 44 44 46 42 31 29 21 27 34 30 36 39 35 27 29 31 34 42 43 40 40 39 37 38 37
34 31 38 28 33 37 39 40 37 35 43 45 37 37 35 30 32 31 35 37 41 44 39 36 27 30 32 34 34 33 33 36 35 35 28 35 35 39 41 40 40 41 39 37 35
32 34 38 36 40 37 36 36 38 40 40 37 34 39 37 30 32 29 32 33 32 38 34 33 25 29 27 33 34 30 34 36 38 39 40 39 38 38 39 41 39 38 37 34 33
39 41 37 36 35 33 33 38 38 40 42 41 39 36 34 34 37 38 37 37 36 33 30 29 23 22 21 31 30 25 32 36 39 42 40 34 38 38 34 33 32 34 34 32 32

GFSSW_sfc_temp_093.txt.gz
Temp
61 60 60 59 59 59 59 58 58 58 58 58 58 58 58 58 57 52 48 59 55 64 65 61 60 58 56 51 54 53 41 34 42 47 49 61 58 62 66 65 66 68 67 71 71
61 61 60 60 59 59 58 58 58 57 58 58 58 58 58 57 50 49 60 64 63 65 59 57 55 57 50 49 51 48 38 43 51 53 53 57 58 61 60 62 63 65 70 75 73
61 60 60 60 59 59 58 58 57 57 57 57 57 57 57 55 50 57 67 64 65 64 60 60 60 58 50 49 50 47 45 51 55 58 56 55 58 64 59 58 62 63 65 69 72
60 60 60 60 59 59 58 57 57 57 57 57 57 57 57 51 46 58 67 65 66 62 60 58 56 51 48 48 53 46 52 55 53 59 56 56 60 58 60 61 66 68 66 66 69
59 59 59 59 59 58 57 57 57 57 57 57 57 57 50 45 50 62 67 66 62 61 59 58 54 51 48 50 50 49 53 56 58 58 57 59 56 57 58 64 64 65 66 63 65
59 58 58 58 58 58 57 56 56 56 56 56 56 57 47 41 64 65 64 61 62 59 59 59 57 58 54 52 50 54 54 54 54 55 55 55 54 52 58 64 62 61 62 64 65
58 57 57 57 57 57 56 56 55 56 56 56 56 55 47 47 60 61 66 61 61 61 59 62 62 55 55 52 57 55 48 50 52 51 53 55 51 50 59 59 57 59 63 64 64
57 56 56 56 56 55 55 55 55 55 56 56 57 53 42 62 58 59 60 61 64 63 62 63 63 57 54 57 53 48 45 39 47 52 55 50 45 54 60 57 57 59 62 64 63
56 55 55 54 53 53 54 54 55 56 56 56 51 50 42 63 56 62 62 60 64 62 62 69 59 53 51 44 40 40 34 38 44 51 50 48 46 52 58 58 56 58 57 60 63
55 55 54 52 52 52 53 54 55 55 55 57 55 44 50 55 64 66 61 64 62 59 56 55 49 44 41 40 32 34 35 31 35 46 45 45 47 55 55 53 55 54 55 58 59
55 54 52 52 51 51 50 48 47 45 47 46 47 47 54 61 64 63 65 62 60 55 44 48 41 38 42 43 44 42 39 37 41 47 44 46 47 50 54 50 51 56 58 58 59
54 53 53 53 52 52 49 43 51 50 39 50 52 51 59 59 52 59 64 55 52 45 48 42 39 48 48 46 44 41 38 38 43 49 44 43 45 51 51 51 52 54 53 50 52
53 53 53 53 53 50 45 48 58 55 38 47 51 50 54 57 51 55 60 55 48 45 44 39 46 52 48 44 42 41 38 40 40 45 46 43 42 47 51 51 53 51 52 52 51
53 53 52 52 46 45 41 53 55 53 31 41 46 51 55 56 50 62 62 56 49 45 45 43 52 49 45 44 45 37 48 47 44 39 33 43 30 45 46 45 48 50 49 49 50
51 52 52 52 43 40 48 52 53 48 22 48 48 63 57 53 54 55 63 56 47 47 45 42 45 43 43 45 49 43 50 46 43 38 36 38 30 39 44 42 45 48 51 48 49
50 51 51 48 44 47 49 51 48 32 23 44 52 50 50 53 55 57 57 58 56 48 45 46 51 49 48 52 51 52 46 43 39 36 28 38 33 31 36 40 45 50 50 48 48
50 50 49 50 42 50 49 45 31 25 47 43 45 50 48 48 50 53 50 46 39 35 36 44 46 51 53 45 48 47 39 28 26 25 26 38 33 35 41 46 47 48 48 47 46
50 50 48 49 48 49 46 37 24 38 42 48 50 50 44 49 47 49 45 39 44 41 37 34 34 44 49 44 41 41 39 29 24 24 28 39 29 36 46 49 51 50 47 46 44
49 42 43 47 48 47 39 27 32 39 45 43 47 42 41 45 45 44 41 40 41 41 34 32 34 46 48 48 45 41 34 42 35 32 28 32 36 43 47 48 50 46 44 41 42
39 39 41 49 48 43 35 33 39 44 45 45 38 42 35 38 39 40 39 42 40 43 44 38 31 42 45 48 45 41 44 29 28 24 22 29 31 31 40 44 48 42 39 39 40
39 35 44 49 47 38 28 33 42 47 47 42 39 38 39 37 38 37 37 40 43 41 42 38 33 33 41 36 34 36 37 35 35 32 25 22 24 39 41 44 41 40 38 37 38
37 30 43 47 34 35 31 41 46 45 48 45 44 41 39 39 36 37 35 39 45 43 36 38 32 26 30 41 42 39 35 35 27 26 29 28 27 42 41 42 41 39 39 38 38
33 32 44 44 28 29 39 40 42 43 41 42 41 42 42 36 32 37 38 43 44 41 35 36 29 22 26 33 38 34 37 38 35 32 26 25 28 44 43 41 40 37 37 37 36
34 25 33 37 38 35 35 37 37 44 41 43 41 41 37 35 38 35 35 40 42 42 45 41 31 28 20 27 31 28 32 35 32 20 24 27 30 39 41 40 38 38 38 36 35
34 30 37 28 32 36 38 39 36 35 42 43 36 36 35 31 32 31 34 36 39 43 37 34 26 29 30 31 31 30 30 32 30 31 25 30 32 40 37 36 35 38 38 36 34
32 33 36 35 39 36 35 35 37 38 39 36 34 37 36 30 32 29 32 32 31 35 32 31 25 28 27 30 30 28 32 33 33 34 34 36 35 39 38 37 34 35 35 33 32
38 40 37 34 34 33 33 37 37 39 40 41 39 35 33 34 37 37 37 36 35 32 30 28 23 22 21 30 29 24 30 31 34 37 37 30 38 37 33 31 31 32 32 31 31

GFSSW_sfc_temp_099.txt.gz
Temp
62 61 61 61 60 60 60 59 58 58 58 58 58 58 58 58 57 54 53 64 60 63 65 64 65 65 65 62 62 60 53 49 52 52 58 63 62 67 71 69 69 72 73 77 79
62 62 62 61 60 59 59 59 58 58 58 58 58 58 58 57 52 51 63 64 63 65 65 63 60 62 58 59 59 58 51 52 57 60 60 63 61 64 64 65 66 69 73 75 76
62 62 62 61 60 60 59 58 58 58 58 57 58 58 57 57 53 62 66 64 64 65 66 66 63 62 57 57 56 55 52 54 57 61 62 61 61 66 63 60 65 66 70 73 73
62 61 61 61 60 60 59 58 57 57 57 57 58 58 57 54 51 65 66 65 65 64 65 62 61 56 54 53 57 51 55 58 60 63 63 60 65 62 62 64 71 71 72 69 72
61 60 61 61 60 59 58 57 57 57 57 57 57 57 53 50 56 66 66 65 64 62 63 60 58 55 52 53 54 52 55 59 60 61 60 62 59 61 62 68 71 68 68 69 69
60 60 60 60 60 58 57 57 56 56 56 57 57 57 49 42 68 66 64 62 64 62 60 61 60 60 56 55 54 57 56 58 60 60 59 58 60 58 63 68 67 66 67 69 69
60 59 59 59 59 57 57 56 54 54 55 57 57 55 45 48 66 63 62 62 63 63 59 62 63 60 59 55 59 58 53 56 57 59 58 59 55 55 66 64 64 67 67 69 69
60 59 58 58 57 56 55 54 53 53 53 56 57 52 41 59 62 58 62 61 64 65 64 65 64 60 58 60 56 52 51 46 55 56 58 59 49 62 64 62 63 64 66 66 67
59 59 58 57 55 54 53 52 52 52 54 55 51 48 42 61 55 60 61 59 62 62 62 66 62 57 56 51 47 46 43 44 49 57 56 55 49 60 66 62 61 63 64 62 62
58 59 58 56 54 53 52 52 51 52 53 56 53 43 50 52 60 61 59 61 60 58 56 57 56 51 50 48 39 42 42 44 45 52 52 51 50 57 60 59 59 61 59 58 60
58 58 56 55 53 52 49 46 44 42 47 44 46 48 51 59 62 61 59 57 60 56 47 51 46 41 46 49 49 47 44 43 48 52 48 49 51 55 59 58 58 58 57 57 58
58 57 55 54 53 52 49 44 48 48 39 48 48 50 55 57 48 56 62 53 51 46 51 46 42 49 51 49 48 46 43 43 48 50 48 51 50 55 57 57 58 57 56 56 56
57 56 55 53 52 48 46 48 54 52 38 44 47 47 49 52 45 50 58 55 50 46 46 44 48 52 49 46 43 44 42 42 44 49 51 48 48 50 55 54 55 56 56 55 55
56 54 52 51 47 46 43 50 49 51 31 40 41 48 52 52 43 56 60 56 50 45 46 46 53 48 47 45 47 40 48 48 45 43 40 49 38 47 51 52 53 54 53 55 55
54 52 51 49 43 43 46 51 51 47 23 45 45 58 54 48 53 49 61 56 45 46 47 44 46 45 43 46 48 45 50 47 46 42 41 43 40 45 48 48 52 53 54 53 54
50 49 49 45 44 45 47 48 46 28 21 41 47 44 42 47 50 53 51 58 57 48 47 48 53 50 49 51 51 53 48 46 44 42 34 42 42 42 48 50 51 52 52 51 50
49 48 46 46 40 46 46 42 28 23 43 40 42 43 43 42 45 49 47 46 44 38 38 44 47 52 53 48 50 50 45 35 32 31 33 41 39 46 51 51 51 49 49 48 48
48 47 46 44 45 47 45 34 22 34 37 46 46 45 40 45 47 48 45 40 45 44 39 37 34 44 50 48 46 44 45 37 27 29 34 40 36 44 51 51 49 48 47 46 45
48 41 42 44 46 46 37 26 29 34 41 39 43 39 40 45 45 43 40 39 41 43 39 37 35 46 48 49 48 43 40 44 37 37 34 40 43 48 49 45 46 45 44 42 42
42 39 40 48 46 43 33 29 34 43 43 42 32 32 35 39 41 41 39 42 41 44 47 40 33 41 46 49 48 45 46 35 36 28 27 35 37 39 39 40 43 43 41 42 42
39 36 44 49 46 37 28 32 39 46 46 40 36 31 37 37 40 36 36 40 41 41 44 41 39 36 42 39 36 40 39 37 38 35 29 28 33 41 40 40 40 40 41 41 41
38 30 44 46 32 34 30 39 44 43 47 43 39 38 37 38 37 34 35 38 42 43 37 39 37 32 33 41 43 41 36 36 31 28 30 30 32 44 42 42 42 40 41 40 41
36 35 45 44 28 30 37 40 42 42 41 38 38 40 41 36 33 36 37 42 44 41 38 40 34 28 30 36 40 35 37 37 35 33 26 26 33 43 41 40 39 37 38 39 39
34 28 33 38 37 33 33 36 37 44 40 42 39 40 39 35 38 34 35 40 42 42 43 43 34 31 28 30 34 31 33 35 32 25 27 31 35 42 44 43 40 38 37 38 37
34 30 36 26 31 33 35 39 36 35 42 43 38 38 37 32 33 31 35 37 40 41 38 38 30 32 34 33 33 32 33 33 30 32 26 33 33 38 42 43 37 37 37 36 35
31 33 37 34 38 33 34 36 37 37 39 37 35 37 38 33 34 31 35 35 35 38 36 35 28 31 28 33 33 30 33 33 33 33 32 34 33 43 45 39 34 33 33 32 32
39 40 38 35 34 33 34 37 37 39 39 42 39 36 34 36 39 40 40 39 39 36 33 32 29 26 22 30 30 25 31 33 34 36 35 28 36 42 34 33 32 31 32 31 31

GFSSW_sfc_temp_102.txt.gz
Temp
62 62 62 61 61 60 60 60 59 59 58 59 59 59 59 58 58 68 65 72 70 65 64 75 76 76 77 74 75 75 65 63 68 67 69 74 72 79 79 75 78 79 79 83 86
62 62 62 62 60 60 59 59 59 58 58 58 58 58 58 58 63 65 72 65 64 65 74 73 71 73 72 71 72 69 65 67 74 73 70 74 72 75 72 74 74 77 83 84 85
63 62 62 62 61 60 59 59 58 58 58 58 58 58 58 60 64 72 66 65 65 68 78 76 75 72 68 70 69 68 62 71 69 71 73 72 72 76 73 68 74 73 77 81 82
62 62 62 62 61 60 59 58 58 58 58 58 58 58 58 64 56 75 67 65 65 75 75 73 71 66 65 63 71 61 67 69 70 72 70 69 74 71 73 72 78 79 80 80 80
60 61 61 61 61 60 58 57 58 57 57 57 58 58 60 58 62 77 66 67 72 72 72 70 68 68 63 66 68 62 67 69 70 70 70 72 68 69 71 77 80 80 77 79 79
59 59 60 61 61 60 58 57 56 56 56 57 57 57 56 48 76 76 74 72 73 72 72 73 69 72 67 65 64 68 67 68 69 69 70 65 68 70 71 78 76 77 76 78 78
59 60 59 60 60 59 57 56 56 55 55 56 57 58 53 57 75 75 70 72 74 73 69 73 74 68 69 63 69 67 60 65 67 68 67 69 63 65 73 76 73 74 76 77 77
59 59 58 59 59 58 56 55 55 54 54 55 57 58 50 68 73 69 72 70 73 73 72 75 74 69 66 69 63 60 62 56 66 67 68 65 58 68 74 72 72 74 75 75 76
59 59 58 58 58 56 55 54 54 54 54 55 52 51 48 66 61 69 70 65 69 70 71 72 70 64 65 58 57 59 53 57 60 67 66 64 60 68 72 70 69 72 75 74 74
58 58 57 58 56 54 53 53 53 53 54 58 59 46 56 60 67 68 70 68 64 65 61 61 59 57 58 57 47 53 54 58 56 63 62 61 60 66 71 71 68 72 73 71 71
58 58 57 57 55 52 51 48 45 43 49 52 54 56 62 67 69 67 67 63 64 60 52 55 47 49 56 58 57 56 56 56 59 63 56 58 60 65 69 70 69 71 69 69 69
58 57 57 56 54 53 54 47 54 56 49 57 57 59 62 63 56 63 68 58 54 52 54 50 44 56 60 59 54 54 52 53 59 62 58 59 59 65 68 69 69 69 67 66 67
57 57 57 54 52 50 50 51 58 59 42 54 59 56 60 61 55 61 65 62 54 49 49 43 50 56 56 52 48 51 51 52 52 58 60 58 56 61 64 66 67 67 66 65 64
56 56 54 52 48 48 44 50 55 54 35 50 49 54 58 58 51 65 67 61 51 46 46 41 48 46 50 50 53 47 56 54 53 51 48 58 49 57 61 61 63 64 63 64 63
55 54 52 55 46 44 49 52 52 50 27 53 51 64 60 53 58 58 67 58 50 49 46 43 46 44 41 51 56 50 56 53 54 52 51 53 48 57 61 57 60 62 62 61 61
52 51 51 47 47 46 50 51 48 34 27 46 53 50 50 52 54 59 57 59 55 41 41 45 50 46 45 48 51 56 51 53 53 51 41 50 50 54 56 59 61 61 59 58 59
50 50 48 48 41 48 48 43 31 29 47 46 47 50 50 49 49 53 47 42 38 34 35 43 45 54 56 49 52 50 46 36 34 35 37 52 49 55 59 59 60 58 57 57 58
49 48 47 46 47 48 46 36 27 37 43 51 49 51 45 51 49 51 46 40 47 48 44 37 34 50 56 52 48 47 47 37 29 35 42 49 43 49 56 58 57 56 55 56 56
49 45 44 45 49 48 41 31 33 39 45 43 47 43 46 50 51 51 49 47 50 52 42 41 40 52 53 54 54 49 45 55 43 45 41 48 50 52 50 50 52 53 54 54 54
50 49 43 47 48 44 37 35 39 47 47 46 38 35 40 46 46 47 47 49 46 49 52 45 36 48 50 54 54 52 56 40 43 32 32 44 46 48 45 48 51 51 51 52 53
52 45 44 47 46 37 34 39 42 48 49 43 41 36 36 40 46 39 43 45 46 44 49 46 43 42 47 45 45 48 46 45 45 43 35 35 42 48 47 49 49 51 51 50 51
49 36 47 46 34 36 37 42 44 45 49 46 44 41 36 40 39 38 38 42 46 46 41 47 43 38 40 46 49 47 45 45 38 37 41 38 40 51 50 49 49 50 49 49 49
40 38 44 43 32 36 42 42 45 44 45 44 41 41 44 40 37 39 37 41 44 43 41 45 40 32 36 41 45 41 42 42 41 40 35 33 39 50 47 50 49 46 47 48 46
45 33 37 38 39 39 38 39 39 48 46 47 44 42 40 39 44 39 39 42 47 46 44 47 42 39 35 36 41 35 38 41 37 32 35 38 42 46 49 51 53 49 45 46 44
45 38 45 32 36 39 42 42 39 39 46 48 42 38 35 35 38 37 40 41 44 43 45 44 36 38 38 39 39 38 38 40 37 39 32 40 40 46 49 49 50 45 44 42 38
36 42 45 44 43 40 39 40 41 42 43 41 39 42 42 36 39 36 40 42 41 43 42 42 33 36 34 38 38 35 40 41 40 40 40 41 40 49 49 47 40 40 40 38 37
51 50 48 41 41 38 40 42 43 45 43 44 45 42 41 41 45 46 47 46 45 41 38 37 34 32 30 35 34 31 37 40 41 43 41 35 41 45 42 38 37 37 36 35 35

GFSSW_sfc_temp_105.txt.gz
Temp
62 62 62 62 61 61 61 61 60 60 59 59 59 59 59 59 58 74 74 75 75 66 65 82 81 82 83 80 83 82 69 67 71 74 78 85 77 86 87 81 84 85 84 87 91
63 63 63 62 61 60 60 60 59 59 59 59 59 59 59 58 66 73 73 66 66 66 75 77 75 79 76 77 78 74 68 71 80 80 79 82 80 80 80 79 79 82 87 89 88
62 63 63 62 61 60 60 59 59 59 59 58 58 59 58 61 69 76 66 66 65 68 81 82 81 77 72 78 76 74 66 77 80 82 80 77 78 83 78 74 79 78 82 85 86
60 61 61 62 62 61 60 58 58 59 58 58 58 59 58 65 58 78 68 66 66 77 79 78 76 71 69 70 77 68 74 75 78 80 77 74 79 76 78 78 84 84 84 85 84
59 60 60 61 62 61 59 58 58 58 58 57 58 58 63 61 65 80 66 67 75 76 76 75 71 71 66 72 75 71 74 76 79 77 76 77 74 75 76 82 85 85 84 82 83
59 59 59 60 60 61 59 58 57 57 57 57 58 57 58 53 81 84 79 77 78 76 75 76 73 76 70 69 69 74 74 74 76 76 76 71 73 75 77 82 81 82 82 82 82
58 58 58 59 59 60 59 57 56 56 57 57 57 61 57 60 81 84 80 79 81 79 74 78 79 73 72 67 74 71 65 70 72 73 72 75 68 69 79 82 79 81 81 82 83
58 58 58 58 58 58 58 56 56 56 56 56 56 59 53 75 82 78 81 77 80 81 78 79 79 72 67 71 69 65 66 58 70 74 74 72 60 76 81 79 77 78 80 80 82
58 58 58 57 57 57 56 55 55 55 55 55 58 58 57 70 68 75 77 72 75 76 76 77 74 67 65 57 55 61 53 59 65 76 72 70 63 74 80 76 75 78 79 80 80
58 58 57 57 56 56 55 54 54 54 54 59 61 50 62 64 74 74 78 74 69 71 67 66 64 59 61 55 43 52 54 62 60 70 69 67 65 72 76 75 74 76 78 79 78
57 58 57 57 56 54 51 49 46 44 49 57 61 61 67 75 76 72 76 71 70 66 57 63 54 51 57 60 60 58 56 57 65 73 67 64 65 71 74 74 74 75 76 76 76
58 57 57 57 55 53 61 49 60 62 52 58 61 64 70 73 62 68 76 62 62 56 62 54 47 58 62 59 55 55 54 54 60 66 65 63 63 69 73 73 75 75 75 74 73
57 57 57 56 53 53 53 57 62 62 45 57 66 65 66 69 61 63 71 65 59 56 57 54 56 58 54 51 43 46 47 52 48 55 64 62 59 64 71 74 76 75 76 74 71
57 56 55 53 49 51 48 56 61 58 37 53 59 63 67 67 57 70 72 66 58 55 55 54 61 55 50 46 46 37 51 53 51 51 46 63 47 62 68 67 69 70 70 71 70
56 55 53 54 49 47 50 59 55 51 28 61 63 70 66 59 64 66 73 64 54 52 49 49 50 49 47 48 50 44 51 48 51 49 51 53 51 59 66 62 64 67 69 68 67
55 53 53 51 54 57 58 55 50 35 29 53 60 55 55 58 60 65 62 67 60 47 43 46 51 51 52 53 48 47 45 48 51 50 38 45 49 54 58 63 65 66 66 64 64
53 52 51 53 45 58 56 48 32 29 52 50 53 57 55 55 55 58 54 48 46 34 36 44 45 47 52 45 48 44 37 30 29 32 35 53 49 51 60 67 66 62 63 62 64
49 49 48 48 52 51 47 38 28 46 47 55 55 57 51 56 56 56 52 44 51 48 43 36 35 46 50 46 43 43 39 33 26 28 35 48 41 46 60 64 62 63 62 62 62
50 47 45 46 49 48 40 32 38 42 51 49 51 47 49 54 55 55 51 48 50 52 41 41 42 57 57 56 54 42 40 50 40 44 40 41 46 51 55 55 58 58 59 59 60
48 44 42 48 50 45 36 37 47 53 52 51 41 43 44 49 50 52 51 55 51 54 58 45 38 53 56 58 58 52 54 39 40 30 32 43 43 43 46 51 56 55 56 57 59
48 40 43 48 47 38 36 43 50 56 54 48 46 43 45 46 51 50 49 51 54 53 55 49 46 43 51 49 44 49 43 44 43 40 34 34 37 48 49 53 53 54 55 55 56
49 37 44 46 34 36 39 46 47 51 54 51 50 47 45 46 47 44 47 49 52 54 48 51 46 39 45 51 53 51 49 46 34 35 37 39 39 52 54 55 55 54 54 55 55
40 38 44 43 32 34 44 46 49 47 49 47 46 49 50 44 40 38 46 47 49 51 48 50 42 37 39 46 51 48 50 49 47 45 38 34 37 54 54 55 58 57 55 55 53
43 34 35 37 39 40 39 41 43 52 50 50 44 48 46 43 48 41 40 44 49 50 44 47 45 42 35 39 47 41 45 48 44 35 39 42 46 49 53 53 55 55 53 53 49
43 40 46 32 35 43 44 44 42 42 50 51 43 44 43 38 41 41 45 44 47 45 48 47 38 43 44 44 44 43 44 45 42 43 36 42 44 49 50 50 49 50 49 47 43
38 44 49 47 46 41 40 41 44 46 47 44 42 45 45 39 42 41 44 45 43 46 46 46 39 41 39 43 43 40 44 45 45 45 45 45 44 49 51 51 44 42 42 41 39
49 53 49 44 44 39 40 45 46 47 48 49 47 46 42 42 49 52 53 50 49 46 43 42 39 37 35 39 39 35 41 44 46 49 46 39 43 46 42 36 35 37 38 37 36

GFSSW_sfc_temp_111.txt.gz
Temp
62 63 63 62 62 61 61 61 61 61 61 61 60 60 60 59 58 64 62 67 68 68 67 72 72 70 68 63 65 62 47 50 52 56 63 74 70 75 75 73 75 76 74 79 80
62 62 62 62 61 61 61 60 60 60 60 60 60 59 59 59 57 58 69 68 67 68 69 68 68 70 60 61 61 55 46 52 62 66 65 69 69 71 70 71 72 72 78 81 81
61 61 61 61 61 60 60 60 59 60 59 59 59 59 59 58 56 66 67 67 68 68 70 70 71 68 61 61 61 58 55 63 66 70 70 68 68 73 67 66 69 69 73 76 75
60 60 60 60 60 60 59 59 59 59 59 59 59 59 59 56 49 67 67 67 68 69 70 68 67 61 57 56 64 57 64 67 68 71 69 68 72 69 68 68 74 74 75 73 73
59 59 59 60 60 59 59 58 59 59 59 59 59 59 56 51 55 72 68 67 69 70 67 66 62 61 56 60 61 59 63 67 68 68 67 70 67 68 69 72 75 77 78 74 73
58 58 58 59 59 59 58 58 58 58 58 58 58 57 51 43 69 74 74 68 70 66 64 66 63 65 60 60 57 62 63 64 66 66 67 65 66 67 69 72 72 74 74 73 73
58 58 58 58 58 59 59 58 58 57 57 58 58 58 51 50 67 69 70 69 69 69 64 69 69 62 61 57 64 62 54 58 60 61 61 66 60 62 70 72 70 72 75 72 72
58 58 57 57 57 58 58 57 58 57 57 57 58 55 45 66 67 66 64 64 72 73 71 70 70 63 58 61 59 53 53 45 56 61 64 61 51 64 69 68 68 71 72 72 71
57 57 57 56 56 57 57 57 57 57 56 56 51 51 45 68 62 68 70 66 70 72 70 76 65 56 56 47 43 47 40 44 50 61 61 59 54 65 66 69 69 70 70 68 68
57 57 57 56 56 56 55 55 55 54 54 57 56 48 54 58 69 71 71 71 66 65 63 60 54 47 46 42 33 38 41 45 46 54 56 52 54 62 66 65 65 67 63 65 65
57 57 56 56 56 54 52 49 46 45 48 46 49 52 62 69 73 68 72 68 64 58 48 54 43 39 45 49 50 49 47 46 51 57 53 51 52 51 57 59 60 64 64 63 66
56 56 56 56 56 54 55 47 53 53 43 49 54 54 61 64 57 65 69 58 55 47 51 46 42 51 54 53 51 50 46 45 50 56 52 49 46 52 56 57 60 63 64 65 64
55 55 55 55 54 53 50 52 60 60 42 53 52 52 56 60 54 56 64 60 54 49 49 44 49 57 54 51 50 49 45 45 45 50 51 46 43 48 56 60 63 66 70 70 63
54 55 54 54 50 50 50 57 60 59 33 45 54 58 60 61 54 65 66 60 53 49 50 47 55 53 51 49 50 43 51 45 43 39 32 43 30 43 49 52 59 62 64 61 60
54 54 55 55 50 48 52 58 57 53 22 55 58 71 65 55 61 61 68 60 50 50 49 46 49 48 43 47 48 43 46 42 41 36 37 37 32 40 49 49 55 57 60 58 57
54 54 55 53 52 54 57 55 52 34 24 49 57 56 55 56 59 62 61 61 57 49 49 49 51 48 45 50 49 48 42 41 39 37 27 37 36 35 42 48 49 55 57 57 55
53 55 54 55 47 56 55 49 33 27 52 48 52 55 53 51 54 56 53 46 42 34 35 44 45 48 52 43 47 40 35 26 22 26 24 44 37 37 47 52 52 51 50 54 55
50 52 49 51 55 56 50 39 27 41 44 58 54 56 48 53 52 52 49 44 47 45 38 35 31 46 50 45 40 37 35 26 20 22 28 39 30 37 48 48 47 48 48 50 52
50 46 45 47 53 53 43 32 33 42 52 49 51 46 47 52 52 50 48 45 50 49 37 36 38 51 53 51 47 39 32 41 31 32 25 31 39 46 42 44 45 46 47 47 50
45 43 43 48 50 46 39 36 40 50 53 51 41 44 42 46 47 48 43 52 50 55 51 44 33 48 52 51 49 43 45 30 31 23 22 33 35 29 34 35 40 41 46 47 47
44 39 43 48 48 39 32 34 43 52 54 48 43 42 42 42 44 42 42 47 49 49 53 46 40 39 47 42 39 41 38 38 36 33 25 26 30 34 32 37 38 41 45 46 46
42 33 44 46 34 33 33 39 48 47 54 50 48 46 43 46 44 43 41 45 51 50 44 46 41 33 39 49 52 49 42 41 28 28 30 30 30 40 41 41 43 46 45 45 44
37 35 44 43 29 31 36 41 47 45 45 44 46 48 48 43 38 41 42 48 50 47 42 43 33 29 33 40 45 42 45 43 40 36 30 26 29 44 44 46 47 43 43 43 42
36 29 34 35 35 34 35 35 37 45 47 49 49 50 43 41 45 39 38 46 49 50 47 47 41 35 28 32 37 36 43 46 40 27 30 33 34 38 43 41 42 41 41 40 39
37 34 34 27 30 34 39 38 37 38 48 51 45 43 40 35 39 38 42 43 47 47 46 43 33 39 43 43 44 43 43 45 41 40 30 37 33 36 37 37 38 40 40 38 36
33 35 39 34 37 33 34 36 36 40 42 42 40 43 43 37 40 34 38 37 38 43 42 43 31 37 34 43 43 38 43 42 43 43 42 37 30 37 38 38 35 36 36 34 34
39 41 38 34 35 32 32 36 39 42 47 48 45 43 42 43 45 46 44 46 45 39 36 36 32 32 26 38 38 29 36 40 40 37 39 29 34 36 33 32 30 32 32 32 31

GFSSW_sfc_temp_114.txt.gz
Temp
62 62 62 62 61 61 61 61 61 61 61 61 60 60 60 59 58 60 58 65 65 67 67 68 68 66 63 58 60 58 46 40 46 50 56 68 65 66 72 69 71 75 72 75 78
61 61 62 61 60 60 60 60 60 60 60 60 60 59 59 59 55 55 66 68 67 68 65 65 65 64 56 56 57 52 43 48 57 58 60 65 66 66 65 67 68 69 75 75 75
61 61 61 61 60 60 59 59 59 60 60 59 59 59 58 57 55 61 67 67 68 67 66 66 66 63 55 56 56 52 50 57 62 65 65 65 66 70 64 61 67 66 70 74 73
60 60 60 60 60 59 59 58 59 59 60 59 59 59 59 55 49 64 68 67 67 66 66 65 62 56 54 53 58 51 59 61 62 64 62 61 63 63 63 64 71 71 71 72 73
59 59 59 59 59 59 58 58 58 59 59 59 59 59 55 49 52 68 68 67 66 67 64 62 59 57 52 55 57 54 57 60 62 63 62 65 62 63 63 68 70 71 73 71 70
58 58 58 58 58 58 58 58 57 58 58 59 59 58 52 43 66 69 69 67 66 63 62 62 60 61 56 55 51 57 57 56 58 58 60 61 61 60 64 68 70 71 71 71 70
58 58 57 58 58 58 59 58 57 58 58 59 58 58 50 50 65 64 66 63 64 65 61 65 64 57 58 54 59 58 51 55 55 55 56 62 55 56 66 66 67 70 72 71 70
58 57 57 57 57 57 58 58 57 59 58 58 58 55 45 64 62 61 60 59 65 66 66 69 66 59 54 57 55 50 48 39 51 54 58 52 47 57 64 62 61 63 66 70 68
57 57 57 56 56 56 56 57 58 58 57 57 52 50 45 64 59 64 63 60 65 66 65 71 64 54 52 44 39 42 34 40 45 57 54 50 49 56 64 62 61 60 62 65 69
57 57 56 56 56 55 55 55 55 54 54 57 56 45 51 55 64 67 64 65 61 61 59 58 52 45 42 38 29 34 36 37 37 47 49 48 50 58 58 56 58 59 61 63 63
57 56 56 56 55 54 52 49 47 45 47 44 47 49 58 63 68 64 67 63 61 56 46 51 42 37 43 44 46 44 42 40 46 51 49 48 49 52 56 55 56 58 60 62 58
56 56 55 55 55 54 54 45 50 50 42 48 52 51 59 60 54 61 66 56 53 44 48 43 39 48 50 48 46 45 41 41 48 52 49 45 45 51 54 55 57 57 60 59 59
55 55 55 55 55 53 48 51 58 55 41 48 50 48 53 56 50 54 59 56 50 45 45 40 46 53 50 46 44 44 42 43 43 44 45 43 39 46 53 55 58 59 60 62 57
54 54 53 54 50 51 49 57 58 56 30 42 48 51 54 58 49 61 63 56 50 46 45 44 52 49 48 46 47 39 45 44 41 37 31 41 29 42 47 49 52 55 53 53 53
53 53 53 55 48 48 53 55 55 52 20 51 53 64 58 53 57 56 63 55 48 46 46 42 44 44 44 46 47 41 44 42 39 33 31 36 28 39 48 45 49 49 48 47 49
54 53 53 52 51 52 55 54 51 34 21 45 54 50 48 52 55 59 56 58 55 48 47 46 49 49 47 48 48 45 41 39 37 33 22 34 32 30 38 44 47 49 48 48 48
52 52 53 55 49 54 56 48 34 24 47 45 48 50 48 47 49 52 50 46 41 35 35 43 43 47 50 41 44 39 34 27 21 25 23 38 33 34 41 43 47 43 43 45 47
51 50 50 52 52 55 50 39 27 38 40 54 52 52 46 49 48 50 45 40 44 42 36 33 31 42 48 44 39 36 35 26 19 21 24 37 25 33 39 39 41 44 44 43 44
51 46 46 48 53 53 44 31 33 39 48 46 49 44 43 49 49 47 45 44 46 46 38 34 36 48 48 48 46 37 29 39 31 30 21 29 34 40 37 35 36 36 38 38 40
42 43 43 49 50 48 39 33 38 48 50 48 39 43 39 44 44 44 43 47 48 50 49 42 35 45 49 49 47 42 43 30 29 21 21 28 29 28 33 33 35 34 33 34 38
43 36 43 49 49 41 32 34 42 50 50 45 42 40 41 41 42 39 42 46 47 46 50 43 39 37 46 41 38 38 37 36 34 29 23 22 26 35 33 37 35 35 35 39 39
42 34 43 47 35 33 33 40 46 45 50 46 46 43 40 42 40 41 40 44 48 48 42 41 39 32 38 47 48 46 41 39 26 25 28 26 29 39 40 42 41 40 39 39 38
37 36 44 43 30 31 35 38 43 42 44 45 44 45 45 40 36 40 42 47 49 44 41 41 34 28 30 39 43 39 43 43 39 34 28 23 27 41 42 42 42 38 39 39 38
35 29 34 35 36 34 32 34 36 44 42 45 45 46 44 40 44 38 38 44 46 45 45 44 35 31 28 33 37 35 41 42 37 27 28 29 32 37 36 37 38 37 36 35 35
34 32 35 28 30 34 37 38 35 34 43 42 41 41 39 34 38 38 40 41 44 46 43 37 28 34 40 41 41 40 40 42 39 37 29 34 32 34 35 34 35 36 36 34 33
32 33 36 31 35 32 34 34 34 37 40 36 35 37 40 35 37 34 37 36 36 39 38 39 28 31 31 41 41 37 41 40 41 39 34 34 31 38 37 36 34 34 33 31 32
38 41 37 35 31 31 32 35 36 39 41 45 41 41 40 40 43 43 42 41 40 39 34 33 30 29 27 35 35 28 34 38 35 35 36 28 33 34 30 30 31 31 32 30 29

GFSSW_sfc_temp_117.txt.gz
Temp
62 62 62 61 61 60 61 60 60 60 60 60 60 60 60 59 58 57 54 64 62 66 67 66 64 63 60 56 57 55 44 38 44 47 54 63 60 62 68 66 67 69 67 72 73
61 61 61 61 60 60 60 60 59 59 60 60 60 59 59 58 53 52 63 68 67 68 65 64 63 63 55 53 54 51 41 45 54 54 56 62 60 62 62 63 64 66 71 72 74
60 60 60 60 60 59 59 58 58 59 59 60 59 59 58 57 53 59 67 67 67 66 65 64 63 60 51 51 50 47 46 52 58 61 59 58 61 63 59 58 64 63 67 70 68
60 59 59 59 60 59 58 58 58 59 59 59 59 59 58 55 47 58 67 67 68 64 64 61 58 52 49 49 52 47 54 56 56 60 58 57 60 58 60 62 67 67 68 67 67
58 58 59 59 59 58 58 57 57 58 58 59 59 59 54 48 50 64 68 66 63 63 60 59 56 54 49 52 54 51 54 57 57 58 57 60 56 58 58 65 65 67 68 66 66
58 58 58 58 58 58 57 57 57 57 58 59 59 58 50 42 62 65 64 63 62 60 59 60 58 56 52 51 49 53 52 53 54 55 56 56 56 54 60 65 64 65 64 65 65
57 57 57 57 57 57 58 58 57 58 59 58 58 58 48 48 60 59 61 57 59 60 58 63 61 56 54 52 56 55 49 51 53 52 53 56 49 51 60 60 60 61 63 63 64
58 57 56 56 56 56 57 58 57 58 60 58 58 55 44 62 58 58 56 57 61 61 63 64 62 57 54 56 52 47 45 37 49 51 55 49 43 55 57 61 60 58 60 62 64
57 57 56 56 55 55 56 57 58 58 58 57 51 51 44 62 57 62 60 56 61 62 63 69 60 53 51 43 38 39 31 36 43 53 50 48 46 52 61 60 58 55 57 57 61
57 56 56 55 55 55 55 56 56 55 56 57 56 44 49 53 61 63 59 61 59 61 58 55 49 43 42 38 29 33 33 30 35 46 48 46 47 55 55 54 54 55 56 55 54
56 56 56 55 55 55 52 47 47 45 47 44 46 47 54 60 64 61 62 59 58 55 46 48 40 37 43 42 43 41 38 36 40 47 45 45 47 50 52 51 52 55 55 53 51
56 55 55 55 55 54 53 43 47 48 41 47 49 49 55 56 50 58 64 54 51 43 47 42 37 47 47 45 43 42 38 38 43 48 45 42 44 50 50 50 53 54 51 51 51
55 55 55 54 54 52 47 49 52 56 39 46 48 47 50 53 47 50 58 53 47 44 44 39 45 50 47 43 41 41 38 39 39 41 43 40 38 44 52 52 54 55 55 54 51
54 54 53 53 50 51 49 54 52 54 29 40 45 49 52 53 45 58 59 54 47 44 44 42 50 47 44 42 43 35 45 43 40 36 28 39 27 42 44 46 48 48 46 47 47
53 53 53 53 47 47 51 54 53 50 20 48 47 60 55 49 53 52 60 52 44 44 44 40 43 42 40 44 46 40 44 41 38 32 29 32 27 32 41 39 41 44 44 43 44
53 53 53 50 50 52 52 53 50 28 21 43 49 46 45 49 51 53 52 54 52 44 44 42 46 46 44 47 46 45 41 38 34 31 21 32 31 27 34 35 40 45 45 44 44
53 53 51 53 45 53 53 48 32 21 45 42 44 46 45 44 46 49 44 42 39 33 33 40 42 46 49 41 42 38 38 29 23 22 22 35 30 31 35 36 38 38 38 39 39
52 51 50 51 52 52 49 39 24 36 36 49 49 46 42 46 45 47 42 37 43 41 35 32 31 40 47 45 38 35 36 28 20 20 23 34 24 31 37 39 39 38 37 37 35
51 44 46 48 52 51 43 31 30 35 44 43 46 40 40 45 46 44 41 41 44 44 37 33 34 45 46 46 45 35 30 37 30 29 22 27 31 36 37 36 36 36 36 35 34
42 41 43 49 51 47 38 35 36 45 47 46 36 41 36 40 40 40 40 46 45 47 47 41 33 44 46 47 44 40 42 29 29 21 20 26 28 24 31 33 35 34 34 34 35
42 37 43 49 49 42 32 35 42 47 48 43 39 37 39 38 39 37 40 45 47 45 48 42 38 36 43 39 36 37 33 34 33 27 22 21 23 31 34 36 35 35 35 34 33
41 34 42 48 36 35 33 38 45 44 49 45 43 42 39 40 38 38 39 42 47 46 39 42 37 33 37 43 47 44 40 35 23 23 29 21 22 41 39 40 38 39 36 35 35
37 37 43 44 31 31 37 40 43 42 42 42 41 43 43 38 35 39 40 44 46 44 39 40 34 26 30 35 40 36 41 41 37 33 28 22 26 41 42 40 40 36 36 36 36
35 30 33 37 37 33 33 34 36 43 42 43 42 44 40 38 41 38 38 43 45 44 46 44 35 32 28 29 34 32 38 41 37 27 28 28 32 36 37 36 35 34 33 33 33
36 31 35 27 31 34 36 35 33 34 42 43 40 39 37 34 37 37 38 40 42 45 40 38 30 32 34 36 35 33 36 38 37 35 29 32 31 36 35 35 34 34 33 33 33
31 32 35 31 35 33 34 33 33 36 40 36 35 38 38 35 36 36 38 37 37 39 36 35 28 29 29 37 39 34 40 40 40 40 38 35 32 38 37 36 33 32 32 31 31
37 40 37 33 30 31 32 33 35 38 40 42 39 37 37 37 40 43 44 41 41 38 33 33 30 29 27 33 33 28 33 40 34 34 34 28 33 35 31 31 31 30 31 27 29

GFSSW_sfc_temp_120.txt.gz
Temp
62 62 62 61 60 60 60 60 60 60 60 60 60 60 60 59 58 55 52 60 60 66 67 64 64 63 60 55 56 53 44 39 44 46 51 59 57 59 64 61 63 65 65 71 73
61 61 61 60 60 59 59 59 58 59 59 60 60 59 59 58 51 50 62 66 67 68 63 62 60 61 54 52 53 49 40 44 51 52 51 55 56 58 59 60 60 61 67 71 71
60 60 60 60 59 59 59 58 58 58 59 59 59 59 58 56 51 57 67 67 68 66 61 61 61 58 50 49 48 44 44 49 53 56 52 51 55 58 54 55 60 61 65 67 66
60 59 59 59 59 59 58 57 58 58 58 59 59 59 59 53 46 55 67 67 68 63 62 60 57 51 47 45 49 44 51 52 52 56 53 53 55 54 59 61 64 64 64 63 64
58 58 58 59 59 58 57 57 57 58 58 59 59 60 53 47 50 62 66 66 63 62 59 57 53 51 47 48 50 48 51 54 55 55 54 56 53 55 55 60 61 63 64 62 62
58 57 58 58 58 57 57 58 57 57 58 59 59 59 49 42 60 62 60 61 61 58 56 56 55 55 50 48 46 50 50 50 52 54 53 51 52 50 55 57 57 58 59 61 61
57 57 57 57 57 57 57 58 57 57 59 59 58 56 46 47 57 57 59 55 57 58 55 58 58 53 52 48 53 51 46 48 50 49 51 51 47 47 54 57 58 58 58 59 60
57 57 56 56 56 56 56 58 58 59 60 58 58 55 42 59 56 56 54 54 57 58 58 60 59 54 50 52 50 45 43 37 47 50 51 50 41 52 54 58 57 58 57 59 59
57 56 56 55 55 55 55 56 58 59 58 57 51 50 42 60 54 58 57 55 56 58 58 67 57 50 48 41 37 38 31 35 42 50 48 46 42 51 58 58 54 57 53 53 54
56 56 56 55 55 55 55 55 56 55 55 57 55 43 48 51 59 59 57 59 56 56 55 52 46 42 39 37 30 31 31 29 34 44 46 44 44 50 53 51 53 54 51 51 47
56 56 55 55 55 55 51 47 44 43 47 43 44 45 50 57 60 58 59 56 56 51 43 46 38 35 41 41 41 40 36 33 37 45 42 42 44 46 50 49 48 50 49 48 46
56 55 55 55 54 55 49 43 45 50 40 47 48 47 53 54 48 55 60 52 49 41 45 40 35 43 45 43 42 40 35 35 40 45 44 41 40 46 47 47 46 44 46 46 45
55 55 54 54 55 52 49 46 51 55 38 44 46 45 48 51 46 47 56 51 45 42 41 36 42 48 45 41 39 38 36 36 37 40 40 38 35 39 45 46 47 44 44 45 42
55 54 53 53 48 47 48 51 50 53 27 38 42 46 50 50 43 54 57 53 46 42 41 40 47 45 41 40 41 32 42 41 38 34 27 38 26 35 38 40 45 42 42 42 43
54 53 53 53 43 45 48 50 49 49 19 44 44 57 52 46 50 49 56 51 43 42 42 39 40 40 38 42 43 38 43 40 38 31 29 30 26 29 36 36 40 40 40 39 39
54 53 53 48 49 49 51 51 50 24 19 39 45 43 42 46 48 50 49 53 50 43 41 41 44 44 43 44 44 44 40 37 33 30 24 31 30 26 32 34 36 37 37 38 38
53 53 51 50 43 51 51 48 30 19 43 39 40 43 41 41 44 45 42 40 37 32 33 38 40 43 47 39 40 38 36 25 21 22 23 33 28 29 35 37 37 36 36 37 37
53 52 50 49 51 51 48 39 24 34 35 46 45 43 39 43 42 44 38 34 40 38 32 30 29 38 44 44 37 33 36 30 20 19 22 32 23 32 38 39 39 39 38 38 36
51 44 45 49 50 49 42 30 28 34 41 40 44 38 37 43 43 42 38 36 40 42 35 31 32 41 44 43 44 35 34 37 30 29 24 26 31 35 38 36 37 37 37 36 35
42 41 44 49 50 47 37 33 35 43 45 44 36 39 33 37 38 39 38 43 43 45 45 40 31 42 43 45 42 39 41 29 29 23 21 25 26 25 31 33 34 34 34 35 36
42 38 42 48 50 41 31 33 40 46 46 41 38 36 37 37 38 35 38 43 46 43 47 40 37 35 41 38 34 35 33 35 33 30 22 21 23 30 34 35 33 34 35 35 34
40 33 42 48 36 36 33 38 44 43 46 43 42 40 38 39 37 37 37 41 45 44 38 41 37 32 36 42 44 42 38 36 28 24 27 20 22 39 38 38 38 37 37 36 35
37 37 42 43 30 31 36 39 42 41 41 41 40 42 41 37 34 38 40 45 46 43 39 40 33 28 27 34 38 37 38 40 38 34 28 21 26 41 41 40 40 37 36 35 33
36 30 34 38 38 35 34 33 35 43 42 42 40 42 39 37 39 35 36 41 43 42 46 43 34 33 28 30 33 31 35 38 37 29 30 30 29 34 37 38 35 33 31 30 31
37 32 35 28 32 35 37 36 34 35 42 43 37 37 36 32 33 33 37 38 41 44 39 37 32 32 34 35 36 34 34 35 34 35 29 32 32 36 38 36 32 31 31 32 31
32 32 35 31 36 34 34 32 32 35 38 35 35 38 39 34 36 32 38 35 35 38 36 36 28 31 29 35 36 32 34 33 34 34 33 34 32 38 38 35 31 30 30 29 29
38 40 33 31 29 31 32 33 35 37 39 41 39 36 34 37 40 41 39 39 41 36 32 32 30 28 26 31 29 28 33 34 34 34 35 31 35 34 31 31 30 30 31 29 30

GFSSW_sfc_temp_123.txt.gz
Temp
62 62 62 61 61 60 60 60 59 59 60 60 60 60 60 59 58 59 58 66 66 66 68 71 72 70 70 67 67 65 60 56 57 56 61 65 64 69 73 70 71 74 75 78 80
61 61 61 61 60 60 59 59 58 59 59 59 60 60 59 59 55 54 65 66 67 68 70 69 66 69 66 65 65 64 57 57 60 61 61 62 63 65 67 68 67 71 76 77 77
61 61 60 60 60 59 58 58 58 58 59 59 59 59 59 59 56 63 66 67 68 68 70 69 68 67 62 63 62 57 57 58 61 62 62 61 63 66 65 62 68 67 69 72 73
60 60 60 60 59 59 58 57 58 58 58 59 59 60 59 58 53 63 67 67 68 70 69 67 65 61 59 58 60 56 59 60 61 61 60 60 63 63 64 66 70 70 70 71 72
58 58 59 59 59 58 57 57 57 58 58 59 59 60 57 52 56 66 65 66 68 68 65 64 61 60 57 58 59 56 58 59 61 60 61 61 59 60 62 68 69 70 70 70 70
58 58 58 58 58 58 57 57 57 57 57 59 59 59 54 47 65 64 63 65 65 65 64 65 62 63 58 56 57 57 57 58 59 61 59 57 58 60 61 66 66 67 68 69 69
58 57 57 57 57 57 57 57 57 57 58 59 59 58 49 53 63 62 61 62 63 63 61 65 65 62 60 55 59 58 53 56 57 58 57 59 56 58 62 65 65 66 67 69 66
58 57 56 56 56 56 56 56 57 58 59 59 59 56 47 61 61 59 60 60 61 63 63 65 65 62 60 60 56 52 51 49 55 57 56 59 49 59 63 63 63 64 65 65 57
57 57 56 56 55 55 55 56 57 59 58 58 54 52 47 62 57 62 62 59 58 60 62 68 65 58 57 50 49 47 46 43 50 56 56 55 49 59 64 61 60 62 62 60 54
57 56 56 55 55 54 55 56 57 56 56 58 56 47 52 56 61 60 61 61 58 57 57 57 54 51 48 49 43 43 43 43 44 53 53 50 50 56 60 58 54 54 56 52 49
56 56 56 55 55 54 52 50 46 45 50 46 47 47 52 58 61 60 61 60 60 56 49 52 48 45 49 49 47 45 44 43 47 52 47 48 49 53 55 51 48 50 51 48 47
56 55 55 55 54 55 52 46 49 51 42 49 49 49 52 56 51 58 62 56 53 48 49 47 43 50 50 48 47 46 43 43 47 50 49 49 48 49 49 46 44 45 45 45 46
55 55 54 54 55 53 51 49 55 56 42 46 48 47 50 53 49 52 58 55 50 46 46 44 49 50 49 45 43 43 42 42 42 47 49 46 44 44 47 48 45 45 46 45 43
55 54 53 53 49 52 49 56 54 55 34 41 42 47 50 52 47 57 60 57 51 47 46 46 51 48 46 44 46 39 47 46 43 42 37 46 35 42 43 44 43 42 39 39 40
54 54 53 54 48 47 52 53 52 49 27 45 43 57 53 48 52 50 59 56 48 46 48 45 45 44 43 46 48 44 47 45 43 41 38 40 37 38 42 40 36 38 39 39 40
54 53 53 50 50 52 53 53 50 32 25 40 45 43 43 47 49 52 54 57 54 48 47 47 51 50 49 47 49 48 45 43 40 39 31 39 39 37 37 39 37 38 39 40 40
54 54 51 50 45 53 54 49 32 25 45 40 40 43 43 42 45 46 46 45 43 38 38 43 44 49 51 45 46 47 42 33 30 27 31 38 35 43 38 41 43 41 39 39 40
53 52 52 50 51 52 49 40 24 37 37 47 45 43 41 45 45 44 43 41 45 43 37 36 35 44 49 48 44 42 43 34 25 26 33 37 33 40 42 42 43 42 42 40 38
53 46 45 47 49 50 42 30 31 36 43 43 45 40 40 44 45 44 42 41 46 46 41 36 37 45 47 48 50 40 37 46 36 33 29 38 39 38 40 38 39 39 40 38 37
45 43 43 49 49 45 37 34 36 43 47 45 39 42 37 40 42 43 40 46 45 48 50 44 37 45 45 50 47 45 47 34 34 26 24 34 35 36 33 33 37 37 36 36 37
43 38 44 49 49 39 30 34 41 47 48 43 40 39 40 40 41 39 42 47 48 46 50 46 43 40 44 42 41 40 39 39 38 34 30 29 34 38 36 39 37 37 37 36 37
41 32 45 49 34 35 32 39 44 43 48 45 44 42 41 42 40 40 40 45 49 48 42 47 41 37 40 45 49 47 43 41 31 29 30 29 34 44 45 45 41 39 38 39 38
37 36 43 44 29 31 37 38 42 41 43 42 41 44 44 40 37 41 43 47 48 47 43 44 36 33 35 38 43 41 43 43 40 36 32 28 36 43 44 43 41 40 39 38 37
36 31 35 38 39 36 34 34 35 44 42 43 41 44 41 39 42 38 39 45 47 46 47 46 38 37 32 34 39 34 39 42 39 32 34 36 40 38 39 39 41 40 39 36 36
36 33 37 29 33 36 37 37 34 34 43 43 39 39 39 35 37 37 41 43 44 46 43 42 36 37 40 41 40 41 40 41 37 38 33 39 38 44 41 40 41 39 35 34 34
33 33 36 34 38 35 36 34 35 37 39 35 35 38 39 36 38 36 40 40 40 41 39 39 35 36 35 38 39 36 39 40 40 40 39 40 37 45 46 43 35 35 34 34 33
36 40 37 33 34 32 33 36 36 39 40 43 40 38 37 39 43 44 43 44 44 40 36 35 34 31 30 36 34 29 36 39 40 42 40 34 42 40 37 36 35 35 35 34 33

GFSSW_sfc_temp_126.txt.gz
Temp
62 63 63 62 61 61 61 60 60 60 60 60 60 60 60 60 60 74 72 72 72 66 67 81 82 82 82 79 80 80 73 72 69 68 69 74 73 79 81 77 79 81 81 83 86
62 62 62 61 61 60 60 59 59 59 59 59 59 60 60 59 67 70 70 66 67 68 79 78 76 79 79 75 80 76 72 70 71 72 71 72 71 74 74 76 75 78 83 83 85
62 62 61 61 60 60 59 59 58 59 59 59 59 60 59 63 67 71 67 67 68 72 79 79 78 77 73 75 73 72 69 70 70 71 72 72 72 74 72 70 75 71 76 79 81
61 61 61 60 60 59 59 58 58 58 59 59 59 60 60 68 61 73 68 68 68 78 78 76 75 71 70 69 71 66 70 70 71 70 70 69 73 71 74 74 78 77 77 80 79
59 59 59 60 60 59 58 57 58 58 58 59 60 60 66 65 69 74 67 70 77 77 75 73 71 70 67 68 68 66 68 68 70 70 71 72 69 70 72 74 77 77 78 78 77
58 58 58 59 59 58 58 57 58 57 58 59 59 59 64 58 74 74 72 74 75 75 74 74 72 73 68 66 66 65 65 67 69 70 70 65 68 67 70 73 74 76 77 77 71
58 58 58 58 58 58 57 57 58 58 58 59 60 65 59 64 75 74 70 73 73 74 72 74 75 71 69 63 67 65 61 67 68 67 66 68 65 65 71 73 73 74 74 73 66
58 57 57 57 57 57 56 57 57 58 59 59 59 63 59 70 74 69 73 71 72 74 72 74 75 71 68 67 64 62 61 60 64 65 64 67 62 68 72 72 71 72 70 67 62
57 57 56 56 56 56 56 56 57 58 59 59 61 59 59 66 65 71 73 69 70 71 72 73 72 67 65 61 59 59 59 57 60 65 64 63 59 68 73 70 67 67 68 63 60
57 57 56 56 56 55 55 57 57 59 61 65 63 54 63 63 67 68 71 71 66 67 65 66 66 62 63 60 56 59 56 57 58 63 63 61 62 65 69 66 61 64 62 60 58
57 57 56 56 55 55 56 61 57 54 56 60 59 59 60 66 68 66 70 67 68 66 59 62 59 57 64 63 62 57 56 56 61 63 57 58 60 64 64 62 59 59 57 56 54
56 56 56 56 55 55 59 56 58 58 53 61 59 58 61 61 59 64 70 63 61 59 61 55 53 64 59 58 56 56 54 55 59 59 56 59 58 59 58 54 54 54 53 51 52
56 56 55 55 55 55 57 58 65 63 53 57 59 57 59 61 60 64 66 65 61 58 57 57 59 59 57 55 54 55 53 54 52 57 60 55 57 53 55 53 52 51 52 51 49
55 55 54 54 52 59 54 63 65 62 46 53 50 56 57 61 55 68 69 66 59 57 58 57 63 56 56 55 56 52 57 54 51 50 48 55 45 54 56 52 52 52 49 50 50
54 54 53 54 56 53 58 65 64 58 34 53 50 63 59 57 58 57 69 63 57 55 56 55 53 53 53 55 56 53 55 53 52 50 49 51 45 56 56 52 52 52 48 48 48
54 54 53 51 55 60 59 61 57 39 32 46 51 49 48 53 55 58 58 64 65 56 55 57 59 58 58 56 57 57 52 51 51 50 39 50 48 56 51 54 54 52 50 49 46
54 54 54 56 50 61 60 52 36 33 53 47 47 50 51 48 50 53 51 49 50 43 45 53 52 57 59 53 55 55 50 42 40 39 40 48 46 52 56 54 54 52 51 47 47
54 53 54 56 56 57 51 42 29 46 48 53 51 50 47 52 51 50 50 47 53 52 50 44 41 53 57 56 52 51 51 43 32 38 43 46 40 51 54 54 53 54 52 48 43
53 52 52 53 54 54 42 31 39 48 51 49 50 46 46 51 51 50 50 50 53 53 48 45 46 56 55 58 57 48 43 55 44 45 37 46 53 47 48 45 48 49 47 43 42
47 45 48 53 53 48 37 35 44 50 52 51 45 49 45 48 48 50 48 55 52 57 60 52 44 53 52 56 57 52 57 39 42 31 32 44 47 46 39 38 44 45 43 41 42
44 39 50 55 52 39 31 38 46 53 52 47 47 45 48 46 50 48 50 53 55 55 58 56 50 47 50 48 49 47 46 47 47 44 36 36 42 49 45 49 45 47 46 41 42
42 34 52 54 35 36 34 44 50 49 53 48 48 46 47 47 46 47 48 52 56 56 48 54 50 43 47 58 59 58 52 50 37 35 39 37 39 56 55 56 54 52 47 43 46
36 39 47 51 31 33 42 43 48 47 47 48 45 48 49 46 42 47 49 51 54 54 50 52 44 38 42 47 52 49 53 53 50 46 36 32 42 53 54 56 55 51 43 43 44
38 32 36 40 47 42 39 40 40 48 46 47 45 49 46 44 48 44 46 49 51 52 48 50 47 41 38 41 45 36 43 48 45 34 39 42 46 54 51 51 49 46 44 43 43
37 34 38 30 34 43 44 43 40 39 46 48 43 43 43 39 41 41 46 49 51 51 50 49 40 44 47 49 48 45 45 47 44 44 37 44 46 54 57 54 51 49 46 42 43
33 35 39 39 42 41 41 39 41 43 44 42 41 45 45 39 43 41 44 45 45 49 47 48 39 43 41 47 47 44 48 49 49 49 48 48 46 57 60 58 51 47 42 41 41
37 44 44 39 39 37 39 42 43 45 45 48 46 43 41 44 49 51 50 49 48 46 44 42 40 37 33 43 41 34 43 47 49 52 50 43 52 60 56 52 48 46 45 42 40

GFSSW_sfc_temp_129.txt.gz
Temp
63 63 63 63 62 62 62 61 61 60 60 60 60 60 61 60 60 80 78 73 74 67 67 85 88 89 90 86 87 88 76 76 76 74 76 80 79 85 86 83 84 86 85 86 89
63 63 63 63 62 61 61 60 60 60 60 60 60 60 60 60 70 76 70 69 68 69 80 83 82 85 84 83 85 80 77 77 80 79 78 79 78 80 79 80 80 82 87 87 88
62 63 62 62 61 61 60 60 59 60 60 60 60 60 60 63 72 79 67 69 69 70 85 85 84 83 80 82 82 81 75 77 78 78 79 79 78 81 78 75 79 76 79 83 85
61 61 61 61 61 60 60 59 59 59 59 59 60 60 60 72 64 80 69 69 69 80 84 82 81 77 75 75 80 71 79 77 79 76 76 76 80 77 79 79 83 81 81 83 82
60 60 61 61 60 60 59 58 58 59 59 59 60 60 68 70 74 77 69 71 81 83 82 80 77 77 73 77 76 73 77 76 78 76 76 77 74 75 77 81 81 81 81 81 80
59 59 59 60 60 59 59 58 58 58 58 59 60 59 67 62 83 83 81 81 83 82 81 81 79 80 75 74 73 74 74 74 76 76 76 72 74 74 78 80 79 79 79 78 74
58 59 59 59 59 58 58 58 58 58 58 59 60 68 66 68 83 83 79 81 83 82 78 81 81 76 77 71 76 73 67 74 75 76 72 73 70 71 79 78 77 78 78 75 70
58 58 58 58 57 57 57 57 57 58 58 60 60 69 62 81 85 79 81 78 80 81 80 81 81 77 74 76 70 68 70 65 76 73 72 70 66 76 78 76 76 77 76 72 67
57 57 57 57 56 56 56 57 57 58 59 60 62 66 63 68 71 79 81 75 77 78 78 79 77 73 72 66 65 67 63 65 67 74 72 69 67 76 79 75 73 74 74 69 66
56 56 56 56 56 56 56 57 58 58 62 69 70 59 68 69 74 75 80 78 73 73 70 70 71 67 67 66 57 63 62 66 65 70 68 67 67 74 77 74 69 72 69 67 64
56 56 56 56 56 56 57 64 60 60 64 63 67 66 68 73 74 72 76 74 74 69 62 67 62 60 66 69 69 67 63 64 70 73 65 63 66 71 75 71 69 69 67 64 61
56 56 56 56 56 55 57 61 65 64 56 67 65 69 72 70 65 72 77 67 65 61 67 61 57 69 73 67 65 63 61 62 68 70 63 63 64 71 71 68 66 65 63 62 62
56 56 56 55 55 56 60 61 71 68 56 63 69 66 68 69 65 69 71 69 64 63 64 60 66 70 68 63 60 62 60 61 61 66 67 63 60 66 66 64 63 62 62 61 60
56 55 54 54 52 62 58 66 69 64 46 56 59 63 68 67 60 75 74 71 67 62 66 63 70 63 63 61 63 57 67 61 58 57 52 63 49 62 64 59 60 62 61 60 60
55 55 54 56 60 56 62 67 66 59 29 62 58 69 67 61 67 67 78 70 62 63 64 60 62 61 59 62 66 59 61 59 59 56 56 58 53 61 69 59 61 63 61 59 57
55 54 54 56 58 62 64 65 58 38 29 54 58 54 54 59 63 64 66 70 70 63 64 63 68 65 64 66 65 63 57 57 58 56 43 54 55 57 64 62 65 65 62 59 54
54 54 54 61 56 64 61 53 35 31 57 53 52 56 56 54 56 57 55 54 53 47 50 55 58 64 65 57 61 59 54 44 43 43 42 57 52 58 64 65 66 62 61 59 55
54 54 56 60 63 63 55 42 27 43 51 59 57 56 52 57 56 55 54 51 57 57 54 47 45 58 62 60 55 55 55 46 37 41 49 55 45 56 65 65 63 62 62 57 51
53 51 55 58 60 56 45 30 36 46 58 54 55 50 51 57 57 54 53 53 57 59 51 49 51 64 63 63 63 56 49 60 48 49 43 50 58 58 60 57 57 57 58 52 49
48 46 49 61 59 49 38 34 44 54 58 57 48 53 48 52 51 52 52 59 57 61 63 57 48 59 58 63 62 59 61 44 46 34 34 46 50 52 48 49 53 54 53 48 48
46 37 46 58 56 41 31 38 47 57 58 52 50 50 51 51 53 50 53 57 61 60 62 60 54 51 54 52 54 53 50 52 51 47 38 38 45 57 52 55 52 55 55 48 47
41 32 48 50 36 38 35 45 49 51 56 52 51 51 51 52 51 52 52 56 61 60 53 59 53 46 50 60 63 60 54 52 40 39 44 43 44 63 62 62 61 59 58 51 49
33 36 47 46 30 34 45 46 49 48 51 51 49 51 52 50 45 51 53 56 58 57 52 56 46 40 44 52 58 52 56 54 53 51 42 36 43 61 62 62 64 62 60 52 50
33 32 36 39 42 42 40 42 41 52 50 51 51 54 50 47 52 48 49 52 54 55 49 52 48 45 39 45 47 41 49 54 52 39 41 43 48 56 55 57 61 61 59 52 50
33 33 38 30 33 40 47 46 44 43 48 48 42 48 48 43 46 45 49 49 52 51 52 47 41 47 50 52 44 43 43 47 45 46 36 45 46 54 57 58 57 61 56 51 49
33 34 37 41 43 40 44 44 45 48 47 43 42 45 46 40 45 42 46 45 46 52 51 49 37 42 40 47 50 46 50 51 51 51 48 49 48 60 63 65 63 59 54 50 49
36 41 41 40 40 40 43 46 47 50 51 52 49 46 44 47 51 53 53 50 49 47 45 44 41 39 34 45 44 37 47 49 51 55 53 46 55 63 61 61 60 60 55 51 49

GFSSW_sfc_temp_135.txt.gz
Temp
63 64 64 64 63 62 62 61 60 60 60 60 60 60 60 60 59 66 64 68 67 68 67 73 73 73 73 68 68 68 54 50 58 62 64 75 71 74 77 76 78 76 74 77 79
64 64 64 64 62 62 61 61 60 60 60 60 60 60 60 59 60 62 69 68 68 68 71 70 70 73 64 65 66 62 52 57 66 66 66 69 73 73 73 74 74 73 77 79 77
64 64 63 63 62 61 61 60 59 60 59 59 59 60 59 59 60 67 68 69 68 69 70 72 73 73 64 64 64 61 56 65 66 69 68 66 69 74 69 67 70 69 71 72 71
63 63 62 63 62 61 60 59 59 59 59 59 60 60 59 58 54 65 68 69 69 69 71 71 70 63 62 60 67 59 68 69 68 69 67 65 67 66 69 67 73 72 74 70 68
61 61 62 62 62 61 60 59 59 59 59 59 60 60 58 58 62 71 69 70 72 74 71 71 68 66 61 65 67 63 66 70 70 69 68 70 64 64 63 71 74 75 70 67 65
60 60 60 60 60 60 59 58 58 58 58 59 59 59 55 51 75 75 73 74 74 73 71 72 70 71 66 65 61 66 66 65 65 67 69 66 65 63 68 69 72 69 65 64 63
57 57 57 58 59 59 59 58 57 58 58 59 59 60 56 56 74 73 77 71 74 74 70 75 73 66 65 62 69 68 58 62 64 64 64 65 57 61 67 70 70 65 63 62 61
56 56 56 56 57 58 58 57 57 57 58 58 59 56 50 73 70 72 73 72 76 76 74 75 74 67 61 65 64 59 57 48 62 65 64 63 52 64 67 68 66 60 62 60 59
56 55 55 55 56 56 56 57 57 58 58 58 54 53 51 72 68 73 72 71 73 74 73 79 70 60 61 52 48 53 43 50 57 67 62 59 55 61 68 69 66 60 57 58 56
56 55 55 55 55 56 56 56 58 57 59 62 62 51 59 62 72 74 73 73 68 68 66 65 59 51 51 49 39 45 48 46 50 55 60 55 57 63 66 67 66 59 58 56 54
56 55 55 54 55 55 54 53 51 50 55 53 55 56 66 70 73 69 72 69 66 62 52 59 47 43 52 56 56 56 54 52 57 63 58 56 55 62 66 63 58 57 57 54 54
56 55 55 55 55 55 53 49 57 58 46 59 57 60 66 69 62 67 71 60 58 51 56 51 46 56 61 60 57 57 54 52 58 64 58 55 53 59 63 62 61 58 55 54 54
55 55 55 55 55 52 50 52 62 63 44 52 59 59 60 65 58 61 66 62 55 52 53 48 54 62 59 58 56 56 54 54 54 59 54 53 48 54 62 61 60 59 58 57 54
55 55 54 53 49 51 48 58 60 59 34 44 55 58 63 64 56 67 70 64 56 52 55 52 60 58 57 55 58 50 61 60 57 52 43 52 38 51 55 60 56 56 54 53 54
54 54 53 55 50 47 55 60 60 53 25 55 58 70 66 58 61 61 71 63 55 55 55 51 55 54 53 57 62 55 61 56 54 47 44 46 41 46 55 50 51 52 53 53 52
54 54 53 51 50 54 58 59 53 33 25 48 58 55 55 57 59 63 61 65 64 56 57 55 65 59 59 63 62 64 56 53 50 46 30 45 43 43 49 56 53 55 54 52 48
53 54 52 54 46 56 56 47 29 26 51 48 52 55 54 53 54 57 53 51 47 42 43 51 53 62 62 54 58 57 46 29 29 28 30 49 45 49 55 60 57 54 52 49 48
52 53 53 53 55 54 48 36 24 39 44 58 58 55 48 54 53 54 51 46 53 50 46 41 38 53 61 55 52 52 49 34 28 27 34 50 37 47 57 59 60 58 51 49 46
51 48 49 50 52 51 39 28 31 40 50 49 51 46 47 52 53 51 48 47 52 53 44 42 42 58 61 60 58 49 44 53 41 40 28 38 46 52 54 53 53 51 48 45 45
41 43 41 51 51 46 36 31 36 47 49 48 39 47 42 47 47 48 47 53 52 57 58 50 40 54 59 61 59 53 56 40 37 29 28 37 40 36 43 45 50 46 44 43 44
39 34 41 51 49 39 30 32 38 48 50 46 42 41 43 43 49 47 47 54 56 55 57 53 46 44 55 51 49 49 47 47 45 39 29 27 29 48 46 49 48 47 46 43 43
39 21 43 49 36 32 31 36 45 45 48 47 45 44 42 44 43 45 46 53 54 53 49 53 46 38 44 56 59 54 50 48 34 33 32 29 31 53 52 53 53 51 48 45 46
34 30 42 42 26 31 35 38 42 43 43 44 41 45 46 40 37 44 46 49 49 47 40 45 40 32 39 48 52 49 51 51 48 40 35 26 33 53 57 55 55 52 49 47 46
34 25 34 38 34 33 33 33 36 46 43 46 42 46 42 38 44 41 38 44 45 45 46 46 43 41 34 38 45 43 49 50 45 34 36 35 38 48 51 50 50 48 48 47 48
33 27 31 19 30 32 36 36 33 36 45 46 37 39 39 33 38 38 37 38 43 43 41 39 32 35 43 44 45 42 44 46 42 41 34 40 39 46 50 49 51 49 48 47 47
30 29 35 29 34 33 34 32 34 37 42 40 35 39 40 37 40 35 36 35 37 44 39 41 31 33 32 42 43 38 43 43 43 43 42 40 38 50 54 56 52 53 52 49 47
34 37 33 32 31 30 31 34 36 39 43 47 44 40 40 41 43 44 43 43 42 39 38 37 33 31 28 38 37 31 38 41 42 46 44 37 43 50 51 54 54 53 54 48 48

GFSSW_sfc_temp_138.txt.gz
Temp
63 63 63 63 63 62 62 61 60 60 60 60 60 60 60 60 60 64 62 67 66 68 68 70 70 69 64 61 63 62 51 46 52 55 60 70 68 70 73 72 71 72 72 70 72
63 63 63 63 63 62 61 60 60 60 60 60 60 60 60 59 57 60 69 69 69 68 68 68 67 68 61 58 61 56 49 54 62 60 61 65 69 68 69 67 68 69 70 70 69
63 63 63 63 62 61 60 60 59 59 59 59 59 60 59 58 59 65 69 68 69 68 67 68 69 66 59 58 57 54 53 59 64 65 63 63 66 70 66 61 68 65 64 65 64
62 62 62 62 62 61 60 59 59 59 59 59 60 60 59 58 53 65 68 69 69 68 70 68 66 61 57 56 59 55 63 64 65 66 65 63 63 64 63 66 69 67 65 63 61
61 61 62 62 62 61 60 58 58 58 58 59 60 60 58 56 59 72 68 69 70 70 68 67 63 60 56 61 63 60 63 66 66 67 65 68 63 61 59 65 67 67 64 60 60
60 60 60 60 60 60 59 58 58 58 58 58 59 59 54 49 71 72 69 70 71 68 68 67 65 66 62 61 57 63 63 60 62 62 64 64 61 61 65 64 63 62 59 59 58
57 56 57 56 57 58 58 58 57 57 58 58 59 59 53 56 68 67 70 67 71 70 66 69 67 63 63 59 63 64 57 60 60 59 61 63 53 59 65 62 59 58 57 56 57
57 56 56 56 56 56 57 57 57 58 58 58 59 54 47 68 65 67 65 68 72 72 70 70 69 63 59 63 61 57 55 49 59 62 62 62 51 61 64 60 55 55 56 55 55
56 56 55 55 55 56 56 56 57 58 58 58 52 51 48 68 64 68 68 67 69 70 69 76 65 58 58 51 47 50 44 49 54 62 59 56 53 62 63 61 55 54 52 53 52
56 56 55 54 54 54 54 56 57 57 59 61 59 49 56 61 68 70 67 70 65 63 62 59 55 48 47 46 42 46 44 44 46 53 56 52 54 58 62 62 56 51 51 52 52
56 56 55 54 54 53 52 52 51 50 50 53 53 53 60 66 71 65 68 65 62 57 49 53 45 41 51 53 51 50 48 46 49 59 54 55 56 55 60 58 52 51 51 51 50
56 55 55 55 54 54 51 48 53 54 45 57 56 57 62 64 57 61 67 58 55 48 52 48 43 54 58 55 52 51 48 48 53 60 55 49 51 57 60 60 54 52 50 49 50
56 55 55 54 54 51 49 50 56 55 43 49 55 55 57 60 53 56 62 58 53 49 49 45 50 58 54 52 50 51 49 50 50 56 52 49 45 52 59 59 57 55 53 52 50
55 55 54 54 49 50 46 56 57 55 35 42 49 54 60 60 53 64 65 60 55 49 51 48 56 54 52 50 53 46 57 56 55 49 39 51 38 47 53 54 53 53 51 50 50
55 55 53 55 48 45 52 55 56 53 24 52 53 65 61 54 57 57 67 59 51 51 51 46 50 51 48 51 57 50 58 54 54 47 41 44 38 42 52 49 48 49 51 51 49
54 54 53 52 49 51 54 56 51 33 23 47 56 52 50 54 56 59 55 59 59 53 53 51 58 54 53 58 58 60 54 49 45 42 32 42 43 47 44 54 50 51 50 49 46
53 54 53 53 45 54 54 47 31 25 49 46 49 54 52 49 51 54 50 48 44 38 40 49 50 57 60 51 55 55 47 31 29 27 33 48 43 49 52 58 55 50 49 46 46
52 53 53 52 54 53 47 36 24 38 39 52 53 53 47 51 49 51 49 42 51 47 41 37 35 51 59 53 50 51 51 37 28 28 36 47 35 46 53 60 58 55 51 46 44
51 46 49 50 51 50 41 28 29 37 47 45 48 44 45 49 49 49 47 45 49 51 42 39 40 53 59 60 58 48 44 53 40 38 28 35 43 49 49 48 52 49 46 43 43
39 38 40 49 51 46 35 32 33 43 47 46 37 43 39 43 45 45 46 50 49 54 56 47 40 50 54 59 57 51 53 39 34 31 29 37 38 36 40 42 46 44 42 42 43
36 28 38 46 49 39 29 32 36 45 46 42 39 37 40 40 44 42 41 51 51 52 55 51 45 42 49 48 47 48 47 46 45 40 33 31 32 42 45 46 44 44 43 41 42
32 18 40 47 35 33 31 36 43 41 46 44 44 40 38 41 38 41 42 47 49 49 43 52 44 37 43 52 55 51 50 47 35 33 35 33 36 50 49 50 49 47 44 43 43
29 24 38 43 28 30 35 36 40 40 42 43 42 43 41 37 33 38 41 45 46 43 38 40 38 33 37 45 51 46 50 51 48 39 36 31 36 50 52 51 51 46 44 43 43
27 16 31 37 31 28 28 32 33 40 40 43 40 42 38 36 40 36 38 42 45 42 42 42 37 35 31 35 40 39 47 50 47 36 37 36 39 44 47 47 46 46 44 44 44
29 23 28 26 26 31 32 33 32 33 41 43 37 35 36 32 35 36 39 39 42 42 40 36 31 33 34 35 38 39 41 43 42 41 35 41 40 45 47 46 46 46 46 45 45
29 25 27 26 31 29 31 27 32 33 35 36 36 37 38 33 36 33 37 35 36 40 37 38 30 32 30 33 33 32 34 38 36 37 37 39 37 48 51 51 49 47 47 46 45
32 33 31 28 27 28 29 30 32 36 38 41 40 37 36 38 43 43 43 43 41 38 36 34 32 30 26 32 31 27 34 38 40 41 39 32 41 50 49 49 49 49 49 48 48

GFSSW_sfc_temp_141.txt.gz
Temp
63 63 63 63 62 63 62 61 60 60 60 60 60 60 60 60 59 63 62 67 64 68 67 68 68 68 64 60 60 57 49 44 50 54 58 66 65 66 67 69 68 67 65 65 66
63 63 63 63 62 62 61 61 60 59 60 59 59 60 60 59 56 58 68 69 68 68 67 65 63 65 59 57 60 55 48 52 59 58 59 61 64 66 65 64 63 61 65 66 65
63 63 63 63 62 61 61 60 59 59 59 59 59 60 59 58 59 64 68 68 68 67 65 65 66 63 56 56 56 53 52 56 62 63 60 59 62 63 62 59 63 60 60 61 60
62 62 62 62 62 61 60 59 59 59 59 59 60 60 59 57 52 64 69 68 68 66 67 65 63 57 54 53 58 52 61 61 65 65 62 61 62 61 60 64 65 62 61 59 57
61 61 62 62 62 61 59 59 59 59 58 59 59 60 58 54 58 69 69 69 68 68 65 63 61 57 53 57 58 56 59 61 66 65 64 64 59 62 55 60 63 62 60 57 56
60 60 60 61 61 59 59 58 58 58 58 58 59 59 54 49 69 70 68 69 67 65 64 63 61 63 57 57 54 58 59 60 60 61 63 61 59 59 57 58 58 58 56 56 55
58 58 58 58 58 58 58 58 57 57 58 59 59 58 52 56 67 65 66 64 66 66 62 65 65 59 59 58 61 59 54 56 59 59 61 62 52 57 58 57 56 55 55 52 54
57 56 56 56 57 57 57 57 57 57 58 58 59 53 48 67 63 64 62 65 69 67 67 69 66 60 57 61 57 52 50 46 57 62 60 61 49 60 58 57 51 51 53 51 50
57 56 55 55 56 56 56 56 56 57 58 58 53 49 48 66 62 67 65 63 66 66 66 73 63 56 55 48 45 45 40 45 53 61 56 55 51 61 58 58 51 51 50 49 47
56 56 55 55 55 54 54 54 56 57 58 59 58 47 55 59 65 67 63 66 63 61 60 58 52 46 45 44 39 42 40 39 45 53 54 49 49 57 58 56 53 49 47 47 48
56 56 55 55 54 53 52 52 49 48 50 52 52 52 58 64 65 63 65 63 59 55 48 52 44 41 49 50 48 47 44 43 46 57 53 50 51 57 54 55 49 47 47 47 48
56 56 55 55 54 54 51 48 49 49 44 54 55 54 61 61 54 60 65 57 53 47 50 46 40 51 53 52 49 47 44 44 49 57 52 50 48 54 53 53 51 50 48 48 47
56 55 55 54 54 51 48 50 56 55 44 47 53 53 55 57 51 54 60 57 51 47 46 43 48 54 52 49 47 46 45 46 48 54 52 45 45 47 55 53 53 53 52 51 48
55 55 54 54 48 47 46 55 55 55 36 41 46 51 56 56 49 61 61 57 51 47 47 46 53 52 48 47 48 42 52 51 50 45 37 48 38 47 51 53 51 51 49 49 48
55 54 54 54 46 44 50 54 55 51 24 51 50 62 59 53 54 52 63 54 48 48 48 44 47 46 46 49 53 45 53 50 48 44 41 43 37 44 50 49 47 49 48 48 49
55 54 54 51 47 49 52 53 51 30 21 45 53 49 49 53 54 56 52 57 56 49 49 47 53 51 49 53 53 55 48 46 42 40 30 42 40 47 46 53 50 50 49 49 47
54 54 53 53 46 50 50 46 31 21 46 43 47 50 48 48 49 51 47 45 43 37 39 47 48 53 55 47 51 50 42 29 29 27 32 46 42 49 49 55 56 48 48 48 45
52 53 53 51 51 52 45 37 21 36 37 49 49 49 44 48 47 48 45 39 48 44 38 35 34 47 54 50 47 47 47 34 27 26 34 45 36 45 53 56 55 53 51 48 44
51 46 49 50 51 50 41 29 29 35 44 42 45 41 41 47 47 46 44 42 44 48 40 36 37 49 54 57 55 47 41 49 40 36 29 33 40 48 47 49 50 48 47 43 42
38 38 42 50 51 46 36 32 33 41 44 43 35 41 36 38 42 42 43 47 47 51 53 45 35 48 51 56 55 51 53 39 36 26 26 36 34 37 39 43 45 44 43 42 42
35 29 38 47 49 39 30 31 34 43 43 39 36 35 37 37 39 39 42 47 46 46 48 48 43 41 48 45 47 45 45 45 44 41 32 30 35 41 44 43 43 44 43 41 41
30 21 39 47 35 32 31 35 42 40 43 43 41 38 36 37 35 38 38 39 45 45 39 41 39 35 41 51 54 49 46 47 36 35 34 38 38 49 48 47 47 45 43 41 42
27 24 41 44 27 29 32 35 38 37 40 40 39 41 40 37 34 37 38 43 45 41 38 40 34 28 35 43 50 45 48 48 45 40 37 33 36 48 48 46 46 41 40 41 41
25 19 27 37 32 26 27 29 32 39 37 41 38 38 36 34 39 34 36 42 43 43 43 42 35 32 27 29 34 34 38 39 41 34 35 37 42 43 44 44 44 42 42 41 41
24 18 28 19 27 32 30 30 29 30 38 40 37 34 34 31 32 33 37 38 40 42 41 37 30 32 33 33 34 33 32 37 33 39 36 38 41 44 45 44 44 43 43 41 41
23 23 27 25 30 28 31 30 28 31 32 32 34 36 36 31 34 31 36 35 34 39 37 37 30 31 29 33 33 31 36 36 35 36 36 36 36 47 49 49 46 45 43 42 43
29 33 28 25 26 23 24 28 29 34 35 38 37 33 33 36 40 42 43 43 41 36 35 34 31 30 26 32 30 26 33 36 36 34 35 30 37 41 40 45 48 48 45 44 45